| State | Ohio | Latest | High (2370 cfs) | |
| River | Maumee River | Rating | Observed | Estimated |
| Updated | 2026-05-10 14:00 (1 hour ago) | Flood - The river is flooding. Obstacles can be treacherous or deadly. The river should be avoided at this stage for casual trips and definitely for the inexperienced. Trips should be attempted only with protective gear and equipment.Flood | (none) | 5712 |
| Discharge | 2370 cfs (median: 1390 cfs) | High - The river is high and potentially dangerous, especially for the young and / or inexperienced. Normal stream obstacles are sometimes difficult to navigate. Extended distances can be attempted, but canoe travel may not be advisable.High | (none) | 1275 |
| Height | 9.95 feet | Good - Conditions are ideal for a canoe or kayak. Boats typically will drag on fewer than one-quarter of riffles, if at all, and portages are unnecessary or rare. Normal float lengths can be attempted without a problem.Good | 200 | 706 |
| Trend | Falling (falling over 24 hours) | Low - River is low but can still be floated. Some riffles are okay but most come with significant dragging and might need a portage. Float lengths should be reduced to accommodate low flow, dragging, and portages.Low | (none) | 439 |
| USGS | USGS Site ( Duck Duck Go Maps) | Poor - River is too low to float comfortably. Most or all riffles will drag or must be portaged and some obstacles (such as slick shelf rock) cause undue problems. Avoid the river at this stage for casual paddling trips.Poor | (none) | 120 |
A total of 3 rows are displayed.
| Miles | 21.9 |
| Trips | 3 |
| People | 8 |
| Dates | 3 |
| Years | 2 |
| Months | 2 |
| Rows | 3 |
| Sources | 1 |
BLG - Bluegill
CCF - Channel Catfish
CP - Chain Pickerel
FWD - Freshwater Drum
GSF - Green Sunfish
KSB - Kentucky Spotted Bass
LMB - Largemouth Bass
LSF - Longear Sunfish
RB - Rock Bass / Goggle Eye
RSF - Redear Sunfish
RT - Rainbow Trout
SMB - Smallmouth Bass
WB - White Bass
WF - Whitefish
WL - WalleyeThe classic River Trips application is still available for use. It is updated with the new system using a data retrofit. It is no longer maintained. The original River Trips application is no longer updated (as of 1 Dec 2016) but can be checked for errors or for the condition of the data before it was converted to the new system.
| Observation | Height | Discharge | Maximum Discharge | Minimum Discharge | Mean Discharge | P05 | P10 | P20 | P25 | P50 (Median) | P75 | P80 | P90 | P95 |
|---|---|---|---|---|---|---|---|---|---|---|---|---|---|---|
| 2026-05-10 14:00 | 9.95 | 2370 | 12900 (1933) | 290 (1946) | 2290 | 338 | 462 | 627 | 712 | 1390 | 2430 | 3310 | 5470 | 9180 |
| 2026-05-10 13:00 | 9.96 | 2380 | 12900 (1933) | 290 (1946) | 2290 | 338 | 462 | 627 | 712 | 1390 | 2430 | 3310 | 5470 | 9180 |
| 2026-05-10 12:00 | 9.95 | 2370 | 12900 (1933) | 290 (1946) | 2290 | 338 | 462 | 627 | 712 | 1390 | 2430 | 3310 | 5470 | 9180 |
| 2026-05-10 11:00 | 9.96 | 2380 | 12900 (1933) | 290 (1946) | 2290 | 338 | 462 | 627 | 712 | 1390 | 2430 | 3310 | 5470 | 9180 |
| 2026-05-10 10:00 | 9.95 | 2370 | 12900 (1933) | 290 (1946) | 2290 | 338 | 462 | 627 | 712 | 1390 | 2430 | 3310 | 5470 | 9180 |
| 2026-05-10 09:00 | 9.96 | 2380 | 12900 (1933) | 290 (1946) | 2290 | 338 | 462 | 627 | 712 | 1390 | 2430 | 3310 | 5470 | 9180 |
| 2026-05-10 08:00 | 9.95 | 2370 | 12900 (1933) | 290 (1946) | 2290 | 338 | 462 | 627 | 712 | 1390 | 2430 | 3310 | 5470 | 9180 |
| 2026-05-10 07:00 | 9.95 | 2370 | 12900 (1933) | 290 (1946) | 2290 | 338 | 462 | 627 | 712 | 1390 | 2430 | 3310 | 5470 | 9180 |
| 2026-05-10 06:00 | 9.95 | 2370 | 12900 (1933) | 290 (1946) | 2290 | 338 | 462 | 627 | 712 | 1390 | 2430 | 3310 | 5470 | 9180 |
| 2026-05-10 05:00 | 9.95 | 2370 | 12900 (1933) | 290 (1946) | 2290 | 338 | 462 | 627 | 712 | 1390 | 2430 | 3310 | 5470 | 9180 |
| 2026-05-10 04:00 | 9.95 | 2370 | 12900 (1933) | 290 (1946) | 2290 | 338 | 462 | 627 | 712 | 1390 | 2430 | 3310 | 5470 | 9180 |
| 2026-05-10 03:00 | 9.96 | 2380 | 12900 (1933) | 290 (1946) | 2290 | 338 | 462 | 627 | 712 | 1390 | 2430 | 3310 | 5470 | 9180 |
| 2026-05-10 02:00 | 9.95 | 2370 | 12900 (1933) | 290 (1946) | 2290 | 338 | 462 | 627 | 712 | 1390 | 2430 | 3310 | 5470 | 9180 |
| 2026-05-10 01:00 | 9.96 | 2380 | 12900 (1933) | 290 (1946) | 2290 | 338 | 462 | 627 | 712 | 1390 | 2430 | 3310 | 5470 | 9180 |
| 2026-05-10 00:00 | 9.98 | 2390 | 12900 (1933) | 290 (1946) | 2290 | 338 | 462 | 627 | 712 | 1390 | 2430 | 3310 | 5470 | 9180 |
| 2026-05-09 23:00 | 9.98 | 2390 | 12900 (1933) | 290 (1946) | 2290 | 338 | 462 | 627 | 712 | 1390 | 2430 | 3310 | 5470 | 9180 |
| 2026-05-09 22:00 | 1 | 2410 | 12200 (1933) | 290 (1946) | 2100 | 355 | 444 | 652 | 715 | 1360 | 2510 | 2950 | 4330 | 7840 |
| 2026-05-09 21:00 | 1 | 2410 | 12200 (1933) | 290 (1946) | 2100 | 355 | 444 | 652 | 715 | 1360 | 2510 | 2950 | 4330 | 7840 |
| 2026-05-09 20:00 | 10.02 | 2430 | 12200 (1933) | 290 (1946) | 2100 | 355 | 444 | 652 | 715 | 1360 | 2510 | 2950 | 4330 | 7840 |
| 2026-05-09 19:00 | 10.04 | 2440 | 12200 (1933) | 290 (1946) | 2100 | 355 | 444 | 652 | 715 | 1360 | 2510 | 2950 | 4330 | 7840 |
| 2026-05-09 18:00 | 10.06 | 2460 | 12200 (1933) | 290 (1946) | 2100 | 355 | 444 | 652 | 715 | 1360 | 2510 | 2950 | 4330 | 7840 |
| 2026-05-09 17:00 | 10.08 | 2480 | 12200 (1933) | 290 (1946) | 2100 | 355 | 444 | 652 | 715 | 1360 | 2510 | 2950 | 4330 | 7840 |
| 2026-05-09 16:00 | 10.09 | 2480 | 12200 (1933) | 290 (1946) | 2100 | 355 | 444 | 652 | 715 | 1360 | 2510 | 2950 | 4330 | 7840 |
| 2026-05-09 15:00 | 10.10 | 2490 | 12200 (1933) | 290 (1946) | 2100 | 355 | 444 | 652 | 715 | 1360 | 2510 | 2950 | 4330 | 7840 |
| 2026-05-09 14:00 | 10.16 | 2540 | 12200 (1933) | 290 (1946) | 2100 | 355 | 444 | 652 | 715 | 1360 | 2510 | 2950 | 4330 | 7840 |
| 2026-05-09 13:00 | 10.18 | 2560 | 12200 (1933) | 290 (1946) | 2100 | 355 | 444 | 652 | 715 | 1360 | 2510 | 2950 | 4330 | 7840 |
| 2026-05-09 12:00 | 10.22 | 2590 | 12200 (1933) | 290 (1946) | 2100 | 355 | 444 | 652 | 715 | 1360 | 2510 | 2950 | 4330 | 7840 |
| 2026-05-09 11:00 | 10.24 | 2610 | 12200 (1933) | 290 (1946) | 2100 | 355 | 444 | 652 | 715 | 1360 | 2510 | 2950 | 4330 | 7840 |
| 2026-05-09 10:00 | 10.26 | 2630 | 12200 (1933) | 290 (1946) | 2100 | 355 | 444 | 652 | 715 | 1360 | 2510 | 2950 | 4330 | 7840 |
| 2026-05-09 09:00 | 10.31 | 2670 | 12200 (1933) | 290 (1946) | 2100 | 355 | 444 | 652 | 715 | 1360 | 2510 | 2950 | 4330 | 7840 |
| 2026-05-09 08:00 | 10.35 | 2710 | 12200 (1933) | 290 (1946) | 2100 | 355 | 444 | 652 | 715 | 1360 | 2510 | 2950 | 4330 | 7840 |
| 2026-05-09 07:00 | 10.39 | 2740 | 12200 (1933) | 290 (1946) | 2100 | 355 | 444 | 652 | 715 | 1360 | 2510 | 2950 | 4330 | 7840 |
| 2026-05-09 06:00 | 10.43 | 2780 | 12200 (1933) | 290 (1946) | 2100 | 355 | 444 | 652 | 715 | 1360 | 2510 | 2950 | 4330 | 7840 |
| 2026-05-09 05:00 | 10.47 | 2810 | 12200 (1933) | 290 (1946) | 2100 | 355 | 444 | 652 | 715 | 1360 | 2510 | 2950 | 4330 | 7840 |
| 2026-05-09 04:00 | 10.53 | 2860 | 12200 (1933) | 290 (1946) | 2100 | 355 | 444 | 652 | 715 | 1360 | 2510 | 2950 | 4330 | 7840 |
| 2026-05-09 03:00 | 10.57 | 2900 | 12200 (1933) | 290 (1946) | 2100 | 355 | 444 | 652 | 715 | 1360 | 2510 | 2950 | 4330 | 7840 |
| 2026-05-09 02:00 | 10.62 | 2950 | 12200 (1933) | 290 (1946) | 2100 | 355 | 444 | 652 | 715 | 1360 | 2510 | 2950 | 4330 | 7840 |
| 2026-05-09 01:00 | 10.68 | 3000 | 12200 (1933) | 290 (1946) | 2100 | 355 | 444 | 652 | 715 | 1360 | 2510 | 2950 | 4330 | 7840 |
| 2026-05-09 00:00 | 10.73 | 3040 | 12200 (1933) | 290 (1946) | 2100 | 355 | 444 | 652 | 715 | 1360 | 2510 | 2950 | 4330 | 7840 |
| 2026-05-08 23:00 | 10.79 | 3090 | 12200 (1933) | 290 (1946) | 2100 | 355 | 444 | 652 | 715 | 1360 | 2510 | 2950 | 4330 | 7840 |
| 2026-05-08 22:00 | 10.85 | 3140 | 12800 (2017) | 287 (1946) | 2120 | 362 | 490 | 713 | 766 | 1180 | 2730 | 3340 | 4280 | 8750 |
| 2026-05-08 21:00 | 10.90 | 3180 | 12800 (2017) | 287 (1946) | 2120 | 362 | 490 | 713 | 766 | 1180 | 2730 | 3340 | 4280 | 8750 |
| 2026-05-08 20:00 | 10.97 | 3240 | 12800 (2017) | 287 (1946) | 2120 | 362 | 490 | 713 | 766 | 1180 | 2730 | 3340 | 4280 | 8750 |
| 2026-05-08 19:00 | 11.04 | 3290 | 12800 (2017) | 287 (1946) | 2120 | 362 | 490 | 713 | 766 | 1180 | 2730 | 3340 | 4280 | 8750 |
| 2026-05-08 18:00 | 11.10 | 3340 | 12800 (2017) | 287 (1946) | 2120 | 362 | 490 | 713 | 766 | 1180 | 2730 | 3340 | 4280 | 8750 |
| 2026-05-08 17:00 | 11.16 | 3390 | 12800 (2017) | 287 (1946) | 2120 | 362 | 490 | 713 | 766 | 1180 | 2730 | 3340 | 4280 | 8750 |
| 2026-05-08 16:00 | 11.23 | 3450 | 12800 (2017) | 287 (1946) | 2120 | 362 | 490 | 713 | 766 | 1180 | 2730 | 3340 | 4280 | 8750 |
| 2026-05-08 15:00 | 11.30 | 3510 | 12800 (2017) | 287 (1946) | 2120 | 362 | 490 | 713 | 766 | 1180 | 2730 | 3340 | 4280 | 8750 |
| 2026-05-08 14:00 | 11.37 | 3560 | 12800 (2017) | 287 (1946) | 2120 | 362 | 490 | 713 | 766 | 1180 | 2730 | 3340 | 4280 | 8750 |
| 2026-05-08 13:00 | 11.44 | 3620 | 12800 (2017) | 287 (1946) | 2120 | 362 | 490 | 713 | 766 | 1180 | 2730 | 3340 | 4280 | 8750 |
| 2026-05-08 12:00 | 11.51 | 3680 | 12800 (2017) | 287 (1946) | 2120 | 362 | 490 | 713 | 766 | 1180 | 2730 | 3340 | 4280 | 8750 |
| 2026-05-08 11:00 | 11.57 | 3730 | 12800 (2017) | 287 (1946) | 2120 | 362 | 490 | 713 | 766 | 1180 | 2730 | 3340 | 4280 | 8750 |
| 2026-05-08 10:00 | 11.61 | 3770 | 12800 (2017) | 287 (1946) | 2120 | 362 | 490 | 713 | 766 | 1180 | 2730 | 3340 | 4280 | 8750 |
| 2026-05-08 09:00 | 11.66 | 3810 | 12800 (2017) | 287 (1946) | 2120 | 362 | 490 | 713 | 766 | 1180 | 2730 | 3340 | 4280 | 8750 |
| 2026-05-08 08:00 | 11.70 | 3840 | 12800 (2017) | 287 (1946) | 2120 | 362 | 490 | 713 | 766 | 1180 | 2730 | 3340 | 4280 | 8750 |
| 2026-05-08 07:00 | 11.74 | 3880 | 12800 (2017) | 287 (1946) | 2120 | 362 | 490 | 713 | 766 | 1180 | 2730 | 3340 | 4280 | 8750 |
| 2026-05-08 06:00 | 11.78 | 3910 | 12800 (2017) | 287 (1946) | 2120 | 362 | 490 | 713 | 766 | 1180 | 2730 | 3340 | 4280 | 8750 |
| 2026-05-08 05:00 | 11.80 | 3930 | 12800 (2017) | 287 (1946) | 2120 | 362 | 490 | 713 | 766 | 1180 | 2730 | 3340 | 4280 | 8750 |
| 2026-05-08 04:00 | 11.82 | 3950 | 12800 (2017) | 287 (1946) | 2120 | 362 | 490 | 713 | 766 | 1180 | 2730 | 3340 | 4280 | 8750 |
| 2026-05-08 03:00 | 11.84 | 3960 | 12800 (2017) | 287 (1946) | 2120 | 362 | 490 | 713 | 766 | 1180 | 2730 | 3340 | 4280 | 8750 |
| 2026-05-08 02:00 | 11.85 | 3970 | 12800 (2017) | 287 (1946) | 2120 | 362 | 490 | 713 | 766 | 1180 | 2730 | 3340 | 4280 | 8750 |
| 2026-05-08 01:00 | 11.86 | 3980 | 12800 (2017) | 287 (1946) | 2120 | 362 | 490 | 713 | 766 | 1180 | 2730 | 3340 | 4280 | 8750 |
| 2026-05-08 00:00 | 11.86 | 3980 | 12800 (2017) | 287 (1946) | 2120 | 362 | 490 | 713 | 766 | 1180 | 2730 | 3340 | 4280 | 8750 |
| 2026-05-07 23:00 | 11.86 | 3980 | 12800 (2017) | 287 (1946) | 2120 | 362 | 490 | 713 | 766 | 1180 | 2730 | 3340 | 4280 | 8750 |
| 2026-05-07 22:00 | 11.85 | 3970 | 14700 (2017) | 239 (1928) | 2170 | 326 | 415 | 675 | 742 | 1220 | 2530 | 3190 | 4800 | 8270 |
| 2026-05-07 21:00 | 11.82 | 3950 | 14700 (2017) | 239 (1928) | 2170 | 326 | 415 | 675 | 742 | 1220 | 2530 | 3190 | 4800 | 8270 |
| 2026-05-07 20:00 | 11.84 | 3960 | 14700 (2017) | 239 (1928) | 2170 | 326 | 415 | 675 | 742 | 1220 | 2530 | 3190 | 4800 | 8270 |
| 2026-05-07 19:00 | 11.80 | 3930 | 14700 (2017) | 239 (1928) | 2170 | 326 | 415 | 675 | 742 | 1220 | 2530 | 3190 | 4800 | 8270 |
| 2026-05-07 18:00 | 11.79 | 3920 | 14700 (2017) | 239 (1928) | 2170 | 326 | 415 | 675 | 742 | 1220 | 2530 | 3190 | 4800 | 8270 |
| 2026-05-07 17:00 | 11.76 | 3890 | 14700 (2017) | 239 (1928) | 2170 | 326 | 415 | 675 | 742 | 1220 | 2530 | 3190 | 4800 | 8270 |
| 2026-05-07 16:00 | 11.72 | 3860 | 14700 (2017) | 239 (1928) | 2170 | 326 | 415 | 675 | 742 | 1220 | 2530 | 3190 | 4800 | 8270 |
| 2026-05-07 15:00 | 11.68 | 3830 | 14700 (2017) | 239 (1928) | 2170 | 326 | 415 | 675 | 742 | 1220 | 2530 | 3190 | 4800 | 8270 |
| 2026-05-07 14:00 | 11.64 | 3790 | 14700 (2017) | 239 (1928) | 2170 | 326 | 415 | 675 | 742 | 1220 | 2530 | 3190 | 4800 | 8270 |
| 2026-05-07 13:00 | 11.58 | 3740 | 14700 (2017) | 239 (1928) | 2170 | 326 | 415 | 675 | 742 | 1220 | 2530 | 3190 | 4800 | 8270 |
| 2026-05-07 12:00 | 11.50 | 3670 | 14700 (2017) | 239 (1928) | 2170 | 326 | 415 | 675 | 742 | 1220 | 2530 | 3190 | 4800 | 8270 |
| 2026-05-07 11:00 | 11.41 | 3600 | 14700 (2017) | 239 (1928) | 2170 | 326 | 415 | 675 | 742 | 1220 | 2530 | 3190 | 4800 | 8270 |
| 2026-05-07 10:00 | 11.30 | 3510 | 14700 (2017) | 239 (1928) | 2170 | 326 | 415 | 675 | 742 | 1220 | 2530 | 3190 | 4800 | 8270 |
| 2026-05-07 08:45 | 11.18 | 3410 | 14700 (2017) | 239 (1928) | 2170 | 326 | 415 | 675 | 742 | 1220 | 2530 | 3190 | 4800 | 8270 |
| 2026-05-07 08:00 | 11.07 | 3320 | 14700 (2017) | 239 (1928) | 2170 | 326 | 415 | 675 | 742 | 1220 | 2530 | 3190 | 4800 | 8270 |
| 2026-05-07 07:00 | 10.93 | 3200 | 14700 (2017) | 239 (1928) | 2170 | 326 | 415 | 675 | 742 | 1220 | 2530 | 3190 | 4800 | 8270 |
| 2026-05-07 06:00 | 10.77 | 3080 | 14700 (2017) | 239 (1928) | 2170 | 326 | 415 | 675 | 742 | 1220 | 2530 | 3190 | 4800 | 8270 |
| 2026-05-07 05:00 | 10.63 | 2950 | 14700 (2017) | 239 (1928) | 2170 | 326 | 415 | 675 | 742 | 1220 | 2530 | 3190 | 4800 | 8270 |
| 2026-05-07 04:00 | 10.48 | 2820 | 14700 (2017) | 239 (1928) | 2170 | 326 | 415 | 675 | 742 | 1220 | 2530 | 3190 | 4800 | 8270 |
| 2026-05-07 03:00 | 10.34 | 2700 | 14700 (2017) | 239 (1928) | 2170 | 326 | 415 | 675 | 742 | 1220 | 2530 | 3190 | 4800 | 8270 |
| 2026-05-07 02:00 | 10.21 | 2590 | 14700 (2017) | 239 (1928) | 2170 | 326 | 415 | 675 | 742 | 1220 | 2530 | 3190 | 4800 | 8270 |
| 2026-05-07 01:00 | 10.10 | 2490 | 14700 (2017) | 239 (1928) | 2170 | 326 | 415 | 675 | 742 | 1220 | 2530 | 3190 | 4800 | 8270 |
| 2026-05-07 00:00 | 10.02 | 2430 | 14700 (2017) | 239 (1928) | 2170 | 326 | 415 | 675 | 742 | 1220 | 2530 | 3190 | 4800 | 8270 |
| 2026-05-06 23:00 | 9.96 | 2380 | 14700 (2017) | 239 (1928) | 2170 | 326 | 415 | 675 | 742 | 1220 | 2530 | 3190 | 4800 | 8270 |
| 2026-05-06 20:45 | 9.91 | 2340 | 16300 (2017) | 287 (1946) | 2200 | 362 | 386 | 768 | 801 | 1360 | 2280 | 3520 | 5550 | 7070 |
| 2026-05-06 20:00 | 9.91 | 2340 | 16300 (2017) | 287 (1946) | 2200 | 362 | 386 | 768 | 801 | 1360 | 2280 | 3520 | 5550 | 7070 |
| 2026-05-06 19:00 | 9.92 | 2340 | 16300 (2017) | 287 (1946) | 2200 | 362 | 386 | 768 | 801 | 1360 | 2280 | 3520 | 5550 | 7070 |
| 2026-05-06 18:00 | 9.93 | 2350 | 16300 (2017) | 287 (1946) | 2200 | 362 | 386 | 768 | 801 | 1360 | 2280 | 3520 | 5550 | 7070 |
| 2026-05-06 17:00 | 9.95 | 2370 | 16300 (2017) | 287 (1946) | 2200 | 362 | 386 | 768 | 801 | 1360 | 2280 | 3520 | 5550 | 7070 |
| 2026-05-06 16:00 | 9.97 | 2390 | 16300 (2017) | 287 (1946) | 2200 | 362 | 386 | 768 | 801 | 1360 | 2280 | 3520 | 5550 | 7070 |
| 2026-05-06 15:00 | 9.98 | 2390 | 16300 (2017) | 287 (1946) | 2200 | 362 | 386 | 768 | 801 | 1360 | 2280 | 3520 | 5550 | 7070 |
| 2026-05-06 14:00 | 1 | 2410 | 16300 (2017) | 287 (1946) | 2200 | 362 | 386 | 768 | 801 | 1360 | 2280 | 3520 | 5550 | 7070 |
| 2026-05-06 13:00 | 10.02 | 2430 | 16300 (2017) | 287 (1946) | 2200 | 362 | 386 | 768 | 801 | 1360 | 2280 | 3520 | 5550 | 7070 |
| 2026-05-06 12:00 | 10.04 | 2440 | 16300 (2017) | 287 (1946) | 2200 | 362 | 386 | 768 | 801 | 1360 | 2280 | 3520 | 5550 | 7070 |
| 2026-05-06 11:00 | 10.06 | 2460 | 16300 (2017) | 287 (1946) | 2200 | 362 | 386 | 768 | 801 | 1360 | 2280 | 3520 | 5550 | 7070 |
| 2026-05-06 10:00 | 10.07 | 2470 | 16300 (2017) | 287 (1946) | 2200 | 362 | 386 | 768 | 801 | 1360 | 2280 | 3520 | 5550 | 7070 |
| 2026-05-06 09:00 | 10.08 | 2480 | 16300 (2017) | 287 (1946) | 2200 | 362 | 386 | 768 | 801 | 1360 | 2280 | 3520 | 5550 | 7070 |
| 2026-05-06 08:00 | 10.09 | 2480 | 16300 (2017) | 287 (1946) | 2200 | 362 | 386 | 768 | 801 | 1360 | 2280 | 3520 | 5550 | 7070 |
| 2026-05-06 07:00 | 10.10 | 2490 | 16300 (2017) | 287 (1946) | 2200 | 362 | 386 | 768 | 801 | 1360 | 2280 | 3520 | 5550 | 7070 |
| 2026-05-06 06:00 | 10.11 | 2500 | 16300 (2017) | 287 (1946) | 2200 | 362 | 386 | 768 | 801 | 1360 | 2280 | 3520 | 5550 | 7070 |
| 2026-05-06 05:00 | 10.11 | 2500 | 16300 (2017) | 287 (1946) | 2200 | 362 | 386 | 768 | 801 | 1360 | 2280 | 3520 | 5550 | 7070 |
| 2026-05-06 04:00 | 10.12 | 2510 | 16300 (2017) | 287 (1946) | 2200 | 362 | 386 | 768 | 801 | 1360 | 2280 | 3520 | 5550 | 7070 |
| 2026-05-06 03:00 | 10.13 | 2520 | 16300 (2017) | 287 (1946) | 2200 | 362 | 386 | 768 | 801 | 1360 | 2280 | 3520 | 5550 | 7070 |
| 2026-05-06 02:00 | 10.13 | 2520 | 16300 (2017) | 287 (1946) | 2200 | 362 | 386 | 768 | 801 | 1360 | 2280 | 3520 | 5550 | 7070 |
| 2026-05-06 01:00 | 10.15 | 2540 | 16300 (2017) | 287 (1946) | 2200 | 362 | 386 | 768 | 801 | 1360 | 2280 | 3520 | 5550 | 7070 |
| 2026-05-06 00:00 | 10.16 | 2540 | 16300 (2017) | 287 (1946) | 2200 | 362 | 386 | 768 | 801 | 1360 | 2280 | 3520 | 5550 | 7070 |
| 2026-05-05 23:00 | 10.18 | 2560 | 16300 (2017) | 287 (1946) | 2200 | 362 | 386 | 768 | 801 | 1360 | 2280 | 3520 | 5550 | 7070 |
| 2026-05-05 22:00 | 10.18 | 2560 | 14800 (2017) | 281 (1946) | 2280 | 361 | 423 | 764 | 812 | 1410 | 2230 | 3610 | 6900 | 8040 |
| 2026-05-05 21:00 | 10.20 | 2580 | 14800 (2017) | 281 (1946) | 2280 | 361 | 423 | 764 | 812 | 1410 | 2230 | 3610 | 6900 | 8040 |
| 2026-05-05 20:00 | 10.23 | 2600 | 14800 (2017) | 281 (1946) | 2280 | 361 | 423 | 764 | 812 | 1410 | 2230 | 3610 | 6900 | 8040 |
| 2026-05-05 19:00 | 10.25 | 2620 | 14800 (2017) | 281 (1946) | 2280 | 361 | 423 | 764 | 812 | 1410 | 2230 | 3610 | 6900 | 8040 |
| 2026-05-05 18:00 | 10.26 | 2630 | 14800 (2017) | 281 (1946) | 2280 | 361 | 423 | 764 | 812 | 1410 | 2230 | 3610 | 6900 | 8040 |
| 2026-05-05 17:00 | 10.28 | 2650 | 14800 (2017) | 281 (1946) | 2280 | 361 | 423 | 764 | 812 | 1410 | 2230 | 3610 | 6900 | 8040 |
| 2026-05-05 16:00 | 10.30 | 2660 | 14800 (2017) | 281 (1946) | 2280 | 361 | 423 | 764 | 812 | 1410 | 2230 | 3610 | 6900 | 8040 |
| 2026-05-05 15:00 | 10.33 | 2690 | 14800 (2017) | 281 (1946) | 2280 | 361 | 423 | 764 | 812 | 1410 | 2230 | 3610 | 6900 | 8040 |
| 2026-05-05 14:00 | 10.33 | 2690 | 14800 (2017) | 281 (1946) | 2280 | 361 | 423 | 764 | 812 | 1410 | 2230 | 3610 | 6900 | 8040 |
| 2026-05-05 12:45 | 10.35 | 2710 | 14800 (2017) | 281 (1946) | 2280 | 361 | 423 | 764 | 812 | 1410 | 2230 | 3610 | 6900 | 8040 |
| 2026-05-05 12:00 | 10.37 | 2720 | 14800 (2017) | 281 (1946) | 2280 | 361 | 423 | 764 | 812 | 1410 | 2230 | 3610 | 6900 | 8040 |
| 2026-05-05 11:00 | 10.38 | 2730 | 14800 (2017) | 281 (1946) | 2280 | 361 | 423 | 764 | 812 | 1410 | 2230 | 3610 | 6900 | 8040 |
| 2026-05-05 10:00 | 10.39 | 2740 | 14800 (2017) | 281 (1946) | 2280 | 361 | 423 | 764 | 812 | 1410 | 2230 | 3610 | 6900 | 8040 |
| 2026-05-05 09:00 | 10.41 | 2760 | 14800 (2017) | 281 (1946) | 2280 | 361 | 423 | 764 | 812 | 1410 | 2230 | 3610 | 6900 | 8040 |
| 2026-05-05 08:00 | 10.43 | 2780 | 14800 (2017) | 281 (1946) | 2280 | 361 | 423 | 764 | 812 | 1410 | 2230 | 3610 | 6900 | 8040 |
| 2026-05-05 07:00 | 10.45 | 2790 | 14800 (2017) | 281 (1946) | 2280 | 361 | 423 | 764 | 812 | 1410 | 2230 | 3610 | 6900 | 8040 |
| 2026-05-05 06:00 | 10.49 | 2830 | 14800 (2017) | 281 (1946) | 2280 | 361 | 423 | 764 | 812 | 1410 | 2230 | 3610 | 6900 | 8040 |
| 2026-05-05 05:00 | 10.51 | 2850 | 14800 (2017) | 281 (1946) | 2280 | 361 | 423 | 764 | 812 | 1410 | 2230 | 3610 | 6900 | 8040 |
| 2026-05-05 04:00 | 10.55 | 2880 | 14800 (2017) | 281 (1946) | 2280 | 361 | 423 | 764 | 812 | 1410 | 2230 | 3610 | 6900 | 8040 |
| 2026-05-05 03:00 | 10.59 | 2920 | 14800 (2017) | 281 (1946) | 2280 | 361 | 423 | 764 | 812 | 1410 | 2230 | 3610 | 6900 | 8040 |
| 2026-05-05 02:00 | 10.64 | 2960 | 14800 (2017) | 281 (1946) | 2280 | 361 | 423 | 764 | 812 | 1410 | 2230 | 3610 | 6900 | 8040 |
| 2026-05-05 01:00 | 10.69 | 3010 | 14800 (2017) | 281 (1946) | 2280 | 361 | 423 | 764 | 812 | 1410 | 2230 | 3610 | 6900 | 8040 |
| 2026-05-05 00:00 | 10.73 | 3040 | 14800 (2017) | 281 (1946) | 2280 | 361 | 423 | 764 | 812 | 1410 | 2230 | 3610 | 6900 | 8040 |
| 2026-05-04 23:00 | 10.78 | 3080 | 14800 (2017) | 281 (1946) | 2280 | 361 | 423 | 764 | 812 | 1410 | 2230 | 3610 | 6900 | 8040 |
| 2026-05-04 22:00 | 10.84 | 3130 | 11700 (1956) | 275 (1946) | 2380 | 413 | 518 | 760 | 851 | 1410 | 2560 | 3800 | 6960 | 8290 |
| 2026-05-04 21:00 | 10.88 | 3160 | 11700 (1956) | 275 (1946) | 2380 | 413 | 518 | 760 | 851 | 1410 | 2560 | 3800 | 6960 | 8290 |
| 2026-05-04 20:00 | 10.93 | 3200 | 11700 (1956) | 275 (1946) | 2380 | 413 | 518 | 760 | 851 | 1410 | 2560 | 3800 | 6960 | 8290 |
| 2026-05-04 19:00 | 10.95 | 3220 | 11700 (1956) | 275 (1946) | 2380 | 413 | 518 | 760 | 851 | 1410 | 2560 | 3800 | 6960 | 8290 |
| 2026-05-04 18:00 | 10.99 | 3250 | 11700 (1956) | 275 (1946) | 2380 | 413 | 518 | 760 | 851 | 1410 | 2560 | 3800 | 6960 | 8290 |
| 2026-05-04 17:00 | 11.04 | 3290 | 11700 (1956) | 275 (1946) | 2380 | 413 | 518 | 760 | 851 | 1410 | 2560 | 3800 | 6960 | 8290 |
| 2026-05-04 16:00 | 11.05 | 3300 | 11700 (1956) | 275 (1946) | 2380 | 413 | 518 | 760 | 851 | 1410 | 2560 | 3800 | 6960 | 8290 |
| 2026-05-04 15:00 | 11.06 | 3310 | 11700 (1956) | 275 (1946) | 2380 | 413 | 518 | 760 | 851 | 1410 | 2560 | 3800 | 6960 | 8290 |
| 2026-05-04 14:00 | 11.09 | 3330 | 11700 (1956) | 275 (1946) | 2380 | 413 | 518 | 760 | 851 | 1410 | 2560 | 3800 | 6960 | 8290 |
| 2026-05-04 13:00 | 11.13 | 3370 | 11700 (1956) | 275 (1946) | 2380 | 413 | 518 | 760 | 851 | 1410 | 2560 | 3800 | 6960 | 8290 |
| 2026-05-04 12:00 | 11.15 | 3380 | 11700 (1956) | 275 (1946) | 2380 | 413 | 518 | 760 | 851 | 1410 | 2560 | 3800 | 6960 | 8290 |
| 2026-05-04 11:00 | 11.18 | 3410 | 11700 (1956) | 275 (1946) | 2380 | 413 | 518 | 760 | 851 | 1410 | 2560 | 3800 | 6960 | 8290 |
| 2026-05-04 10:00 | 11.19 | 3420 | 11700 (1956) | 275 (1946) | 2380 | 413 | 518 | 760 | 851 | 1410 | 2560 | 3800 | 6960 | 8290 |
| 2026-05-04 09:00 | 11.21 | 3430 | 11700 (1956) | 275 (1946) | 2380 | 413 | 518 | 760 | 851 | 1410 | 2560 | 3800 | 6960 | 8290 |
| 2026-05-04 08:00 | 11.24 | 3460 | 11700 (1956) | 275 (1946) | 2380 | 413 | 518 | 760 | 851 | 1410 | 2560 | 3800 | 6960 | 8290 |
| 2026-05-04 07:00 | 11.25 | 3470 | 11700 (1956) | 275 (1946) | 2380 | 413 | 518 | 760 | 851 | 1410 | 2560 | 3800 | 6960 | 8290 |
| 2026-05-04 06:00 | 11.28 | 3490 | 11700 (1956) | 275 (1946) | 2380 | 413 | 518 | 760 | 851 | 1410 | 2560 | 3800 | 6960 | 8290 |
| 2026-05-04 05:00 | 11.30 | 3510 | 11700 (1956) | 275 (1946) | 2380 | 413 | 518 | 760 | 851 | 1410 | 2560 | 3800 | 6960 | 8290 |
| 2026-05-04 04:00 | 11.32 | 3520 | 11700 (1956) | 275 (1946) | 2380 | 413 | 518 | 760 | 851 | 1410 | 2560 | 3800 | 6960 | 8290 |
| 2026-05-04 03:00 | 11.34 | 3540 | 11700 (1956) | 275 (1946) | 2380 | 413 | 518 | 760 | 851 | 1410 | 2560 | 3800 | 6960 | 8290 |
| 2026-05-04 02:00 | 11.36 | 3560 | 11700 (1956) | 275 (1946) | 2380 | 413 | 518 | 760 | 851 | 1410 | 2560 | 3800 | 6960 | 8290 |
| 2026-05-04 00:30 | 11.38 | 3570 | 11700 (1956) | 275 (1946) | 2380 | 413 | 518 | 760 | 851 | 1410 | 2560 | 3800 | 6960 | 8290 |
| 2026-05-04 00:00 | 11.39 | 3580 | 11700 (1956) | 275 (1946) | 2380 | 413 | 518 | 760 | 851 | 1410 | 2560 | 3800 | 6960 | 8290 |
| 2026-05-03 23:00 | 11.40 | 3590 | 11700 (1956) | 275 (1946) | 2380 | 413 | 518 | 760 | 851 | 1410 | 2560 | 3800 | 6960 | 8290 |
| 2026-05-03 22:00 | 11.43 | 3610 | 13700 (2019) | 290 (1946) | 2500 | 415 | 498 | 834 | 901 | 1350 | 2690 | 4420 | 6170 | 9370 |
| 2026-05-03 21:00 | 11.43 | 3610 | 13700 (2019) | 290 (1946) | 2500 | 415 | 498 | 834 | 901 | 1350 | 2690 | 4420 | 6170 | 9370 |
| 2026-05-03 20:00 | 11.46 | 3640 | 13700 (2019) | 290 (1946) | 2500 | 415 | 498 | 834 | 901 | 1350 | 2690 | 4420 | 6170 | 9370 |
| 2026-05-03 19:00 | 11.47 | 3650 | 13700 (2019) | 290 (1946) | 2500 | 415 | 498 | 834 | 901 | 1350 | 2690 | 4420 | 6170 | 9370 |
| 2026-05-03 18:00 | 11.49 | 3670 | 13700 (2019) | 290 (1946) | 2500 | 415 | 498 | 834 | 901 | 1350 | 2690 | 4420 | 6170 | 9370 |
| 2026-05-03 17:00 | 11.50 | 3670 | 13700 (2019) | 290 (1946) | 2500 | 415 | 498 | 834 | 901 | 1350 | 2690 | 4420 | 6170 | 9370 |
| 2026-05-03 16:00 | 11.52 | 3690 | 13700 (2019) | 290 (1946) | 2500 | 415 | 498 | 834 | 901 | 1350 | 2690 | 4420 | 6170 | 9370 |
| 2026-05-03 15:00 | 11.54 | 3710 | 13700 (2019) | 290 (1946) | 2500 | 415 | 498 | 834 | 901 | 1350 | 2690 | 4420 | 6170 | 9370 |
| 2026-05-03 14:00 | 11.54 | 3710 | 13700 (2019) | 290 (1946) | 2500 | 415 | 498 | 834 | 901 | 1350 | 2690 | 4420 | 6170 | 9370 |
| 2026-05-03 13:00 | 11.56 | 3720 | 13700 (2019) | 290 (1946) | 2500 | 415 | 498 | 834 | 901 | 1350 | 2690 | 4420 | 6170 | 9370 |
| 2026-05-03 12:00 | 11.60 | 3760 | 13700 (2019) | 290 (1946) | 2500 | 415 | 498 | 834 | 901 | 1350 | 2690 | 4420 | 6170 | 9370 |
| 2026-05-03 11:00 | 11.61 | 3770 | 13700 (2019) | 290 (1946) | 2500 | 415 | 498 | 834 | 901 | 1350 | 2690 | 4420 | 6170 | 9370 |
| 2026-05-03 10:00 | 11.63 | 3780 | 13700 (2019) | 290 (1946) | 2500 | 415 | 498 | 834 | 901 | 1350 | 2690 | 4420 | 6170 | 9370 |
| 2026-05-03 09:00 | 11.64 | 3790 | 13700 (2019) | 290 (1946) | 2500 | 415 | 498 | 834 | 901 | 1350 | 2690 | 4420 | 6170 | 9370 |
| 2026-05-03 08:00 | 11.65 | 3800 | 13700 (2019) | 290 (1946) | 2500 | 415 | 498 | 834 | 901 | 1350 | 2690 | 4420 | 6170 | 9370 |
| 2026-05-03 07:00 | 11.68 | 3830 | 13700 (2019) | 290 (1946) | 2500 | 415 | 498 | 834 | 901 | 1350 | 2690 | 4420 | 6170 | 9370 |
| 2026-05-03 06:00 | 11.69 | 3830 | 13700 (2019) | 290 (1946) | 2500 | 415 | 498 | 834 | 901 | 1350 | 2690 | 4420 | 6170 | 9370 |
| 2026-05-03 05:00 | 11.69 | 3830 | 13700 (2019) | 290 (1946) | 2500 | 415 | 498 | 834 | 901 | 1350 | 2690 | 4420 | 6170 | 9370 |
| 2026-05-03 04:00 | 11.70 | 3840 | 13700 (2019) | 290 (1946) | 2500 | 415 | 498 | 834 | 901 | 1350 | 2690 | 4420 | 6170 | 9370 |
| 2026-05-03 03:00 | 11.71 | 3850 | 13700 (2019) | 290 (1946) | 2500 | 415 | 498 | 834 | 901 | 1350 | 2690 | 4420 | 6170 | 9370 |
| 2026-05-03 02:00 | 11.72 | 3860 | 13700 (2019) | 290 (1946) | 2500 | 415 | 498 | 834 | 901 | 1350 | 2690 | 4420 | 6170 | 9370 |
| 2026-05-03 01:00 | 11.72 | 3860 | 13700 (2019) | 290 (1946) | 2500 | 415 | 498 | 834 | 901 | 1350 | 2690 | 4420 | 6170 | 9370 |
| 2026-05-03 00:00 | 11.71 | 3850 | 13700 (2019) | 290 (1946) | 2500 | 415 | 498 | 834 | 901 | 1350 | 2690 | 4420 | 6170 | 9370 |
| 2026-05-02 23:00 | 11.72 | 3860 | 13700 (2019) | 290 (1946) | 2500 | 415 | 498 | 834 | 901 | 1350 | 2690 | 4420 | 6170 | 9370 |
| 2026-05-02 22:00 | 11.72 | 3860 | 14600 (2019) | 309 (1946) | 2630 | 408 | 513 | 838 | 955 | 1440 | 3060 | 3900 | 5930 | 10300 |
| 2026-05-02 21:00 | 11.72 | 3860 | 14600 (2019) | 309 (1946) | 2630 | 408 | 513 | 838 | 955 | 1440 | 3060 | 3900 | 5930 | 10300 |
| 2026-05-02 20:00 | 11.72 | 3860 | 14600 (2019) | 309 (1946) | 2630 | 408 | 513 | 838 | 955 | 1440 | 3060 | 3900 | 5930 | 10300 |
| 2026-05-02 19:00 | 11.71 | 3850 | 14600 (2019) | 309 (1946) | 2630 | 408 | 513 | 838 | 955 | 1440 | 3060 | 3900 | 5930 | 10300 |
| 2026-05-02 17:45 | 11.72 | 3860 | 14600 (2019) | 309 (1946) | 2630 | 408 | 513 | 838 | 955 | 1440 | 3060 | 3900 | 5930 | 10300 |
| 2026-05-02 17:00 | 11.71 | 3850 | 14600 (2019) | 309 (1946) | 2630 | 408 | 513 | 838 | 955 | 1440 | 3060 | 3900 | 5930 | 10300 |
| 2026-05-02 16:00 | 11.71 | 3850 | 14600 (2019) | 309 (1946) | 2630 | 408 | 513 | 838 | 955 | 1440 | 3060 | 3900 | 5930 | 10300 |
| 2026-05-02 15:00 | 11.71 | 3850 | 14600 (2019) | 309 (1946) | 2630 | 408 | 513 | 838 | 955 | 1440 | 3060 | 3900 | 5930 | 10300 |
| 2026-05-02 14:00 | 11.70 | 3840 | 14600 (2019) | 309 (1946) | 2630 | 408 | 513 | 838 | 955 | 1440 | 3060 | 3900 | 5930 | 10300 |
| 2026-05-02 13:00 | 11.70 | 3840 | 14600 (2019) | 309 (1946) | 2630 | 408 | 513 | 838 | 955 | 1440 | 3060 | 3900 | 5930 | 10300 |
| 2026-05-02 12:00 | 11.70 | 3840 | 14600 (2019) | 309 (1946) | 2630 | 408 | 513 | 838 | 955 | 1440 | 3060 | 3900 | 5930 | 10300 |
| 2026-05-02 11:00 | 11.70 | 3840 | 14600 (2019) | 309 (1946) | 2630 | 408 | 513 | 838 | 955 | 1440 | 3060 | 3900 | 5930 | 10300 |
| 2026-05-02 10:00 | 11.69 | 3830 | 14600 (2019) | 309 (1946) | 2630 | 408 | 513 | 838 | 955 | 1440 | 3060 | 3900 | 5930 | 10300 |
| 2026-05-02 09:00 | 11.70 | 3840 | 14600 (2019) | 309 (1946) | 2630 | 408 | 513 | 838 | 955 | 1440 | 3060 | 3900 | 5930 | 10300 |
| 2026-05-02 08:00 | 11.69 | 3830 | 14600 (2019) | 309 (1946) | 2630 | 408 | 513 | 838 | 955 | 1440 | 3060 | 3900 | 5930 | 10300 |
| 2026-05-02 07:00 | 11.70 | 3840 | 14600 (2019) | 309 (1946) | 2630 | 408 | 513 | 838 | 955 | 1440 | 3060 | 3900 | 5930 | 10300 |
| 2026-05-02 06:00 | 11.70 | 3840 | 14600 (2019) | 309 (1946) | 2630 | 408 | 513 | 838 | 955 | 1440 | 3060 | 3900 | 5930 | 10300 |
| 2026-05-02 05:00 | 11.70 | 3840 | 14600 (2019) | 309 (1946) | 2630 | 408 | 513 | 838 | 955 | 1440 | 3060 | 3900 | 5930 | 10300 |
| 2026-05-02 04:00 | 11.70 | 3840 | 14600 (2019) | 309 (1946) | 2630 | 408 | 513 | 838 | 955 | 1440 | 3060 | 3900 | 5930 | 10300 |
| 2026-05-02 03:00 | 11.72 | 3860 | 14600 (2019) | 309 (1946) | 2630 | 408 | 513 | 838 | 955 | 1440 | 3060 | 3900 | 5930 | 10300 |
| 2026-05-02 02:00 | 11.71 | 3850 | 14600 (2019) | 309 (1946) | 2630 | 408 | 513 | 838 | 955 | 1440 | 3060 | 3900 | 5930 | 10300 |
| 2026-05-02 01:00 | 11.72 | 3860 | 14600 (2019) | 309 (1946) | 2630 | 408 | 513 | 838 | 955 | 1440 | 3060 | 3900 | 5930 | 10300 |
| 2026-05-02 00:00 | 11.72 | 3860 | 14600 (2019) | 309 (1946) | 2630 | 408 | 513 | 838 | 955 | 1440 | 3060 | 3900 | 5930 | 10300 |
| 2026-05-01 22:45 | 11.71 | 3850 | 14800 (1959) | 309 (1946) | 2740 | 418 | 488 | 824 | 984 | 1580 | 3300 | 3990 | 6740 | 11800 |
| 2026-05-01 22:00 | 11.70 | 3840 | 14800 (1959) | 309 (1946) | 2740 | 418 | 488 | 824 | 984 | 1580 | 3300 | 3990 | 6740 | 11800 |
| 2026-05-01 21:00 | 11.69 | 3830 | 14800 (1959) | 309 (1946) | 2740 | 418 | 488 | 824 | 984 | 1580 | 3300 | 3990 | 6740 | 11800 |
| 2026-05-01 20:00 | 11.66 | 3810 | 14800 (1959) | 309 (1946) | 2740 | 418 | 488 | 824 | 984 | 1580 | 3300 | 3990 | 6740 | 11800 |
| 2026-05-01 19:00 | 11.64 | 3790 | 14800 (1959) | 309 (1946) | 2740 | 418 | 488 | 824 | 984 | 1580 | 3300 | 3990 | 6740 | 11800 |
| 2026-05-01 18:00 | 11.60 | 3760 | 14800 (1959) | 309 (1946) | 2740 | 418 | 488 | 824 | 984 | 1580 | 3300 | 3990 | 6740 | 11800 |
| 2026-05-01 17:00 | 11.55 | 3720 | 14800 (1959) | 309 (1946) | 2740 | 418 | 488 | 824 | 984 | 1580 | 3300 | 3990 | 6740 | 11800 |
| 2026-05-01 16:00 | 11.52 | 3690 | 14800 (1959) | 309 (1946) | 2740 | 418 | 488 | 824 | 984 | 1580 | 3300 | 3990 | 6740 | 11800 |
| 2026-05-01 15:00 | 11.50 | 3670 | 14800 (1959) | 309 (1946) | 2740 | 418 | 488 | 824 | 984 | 1580 | 3300 | 3990 | 6740 | 11800 |
| 2026-05-01 14:00 | 11.45 | 3630 | 14800 (1959) | 309 (1946) | 2740 | 418 | 488 | 824 | 984 | 1580 | 3300 | 3990 | 6740 | 11800 |
| 2026-05-01 13:00 | 11.43 | 3610 | 14800 (1959) | 309 (1946) | 2740 | 418 | 488 | 824 | 984 | 1580 | 3300 | 3990 | 6740 | 11800 |
| 2026-05-01 12:00 | 11.43 | 3610 | 14800 (1959) | 309 (1946) | 2740 | 418 | 488 | 824 | 984 | 1580 | 3300 | 3990 | 6740 | 11800 |
| 2026-05-01 11:00 | 11.43 | 3610 | 14800 (1959) | 309 (1946) | 2740 | 418 | 488 | 824 | 984 | 1580 | 3300 | 3990 | 6740 | 11800 |
| 2026-05-01 10:00 | 11.43 | 3610 | 14800 (1959) | 309 (1946) | 2740 | 418 | 488 | 824 | 984 | 1580 | 3300 | 3990 | 6740 | 11800 |
| 2026-05-01 09:00 | 11.47 | 3650 | 14800 (1959) | 309 (1946) | 2740 | 418 | 488 | 824 | 984 | 1580 | 3300 | 3990 | 6740 | 11800 |
| 2026-05-01 08:00 | 11.49 | 3670 | 14800 (1959) | 309 (1946) | 2740 | 418 | 488 | 824 | 984 | 1580 | 3300 | 3990 | 6740 | 11800 |
| 2026-05-01 07:00 | 11.53 | 3700 | 14800 (1959) | 309 (1946) | 2740 | 418 | 488 | 824 | 984 | 1580 | 3300 | 3990 | 6740 | 11800 |
| 2026-05-01 06:00 | 11.56 | 3720 | 14800 (1959) | 309 (1946) | 2740 | 418 | 488 | 824 | 984 | 1580 | 3300 | 3990 | 6740 | 11800 |
| 2026-05-01 05:00 | 11.60 | 3760 | 14800 (1959) | 309 (1946) | 2740 | 418 | 488 | 824 | 984 | 1580 | 3300 | 3990 | 6740 | 11800 |
| 2026-05-01 03:15 | 11.69 | 3830 | 14800 (1959) | 309 (1946) | 2740 | 418 | 488 | 824 | 984 | 1580 | 3300 | 3990 | 6740 | 11800 |
| 2026-05-01 03:00 | 11.69 | 3830 | 14800 (1959) | 309 (1946) | 2740 | 418 | 488 | 824 | 984 | 1580 | 3300 | 3990 | 6740 | 11800 |
| 2026-05-01 02:00 | 11.75 | 3890 | 14800 (1959) | 309 (1946) | 2740 | 418 | 488 | 824 | 984 | 1580 | 3300 | 3990 | 6740 | 11800 |
| 2026-05-01 01:00 | 11.81 | 3940 | 14800 (1959) | 309 (1946) | 2740 | 418 | 488 | 824 | 984 | 1580 | 3300 | 3990 | 6740 | 11800 |
| 2026-05-01 00:00 | 11.87 | 3990 | 14800 (1959) | 309 (1946) | 2740 | 418 | 488 | 824 | 984 | 1580 | 3300 | 3990 | 6740 | 11800 |
| 2026-04-30 23:00 | 11.93 | 4040 | 14800 (1959) | 309 (1946) | 2740 | 418 | 488 | 824 | 984 | 1580 | 3300 | 3990 | 6740 | 11800 |
| 2026-04-30 22:00 | 12.01 | 4120 | 15300 (1959) | 296 (1946) | 2730 | 445 | 519 | 872 | 966 | 1490 | 3230 | 4360 | 6130 | 12000 |
| 2026-04-30 21:00 | 12.08 | 4180 | 15300 (1959) | 296 (1946) | 2730 | 445 | 519 | 872 | 966 | 1490 | 3230 | 4360 | 6130 | 12000 |
| 2026-04-30 20:00 | 12.16 | 4260 | 15300 (1959) | 296 (1946) | 2730 | 445 | 519 | 872 | 966 | 1490 | 3230 | 4360 | 6130 | 12000 |
| 2026-04-30 19:00 | 12.24 | 4330 | 15300 (1959) | 296 (1946) | 2730 | 445 | 519 | 872 | 966 | 1490 | 3230 | 4360 | 6130 | 12000 |
| 2026-04-30 18:00 | 12.32 | 4410 | 15300 (1959) | 296 (1946) | 2730 | 445 | 519 | 872 | 966 | 1490 | 3230 | 4360 | 6130 | 12000 |
| 2026-04-30 17:00 | 12.41 | 4490 | 15300 (1959) | 296 (1946) | 2730 | 445 | 519 | 872 | 966 | 1490 | 3230 | 4360 | 6130 | 12000 |
| 2026-04-30 16:00 | 12.51 | 4590 | 15300 (1959) | 296 (1946) | 2730 | 445 | 519 | 872 | 966 | 1490 | 3230 | 4360 | 6130 | 12000 |
| 2026-04-30 15:00 | 12.61 | 4680 | 15300 (1959) | 296 (1946) | 2730 | 445 | 519 | 872 | 966 | 1490 | 3230 | 4360 | 6130 | 12000 |
| 2026-04-30 14:00 | 12.70 | 4770 | 15300 (1959) | 296 (1946) | 2730 | 445 | 519 | 872 | 966 | 1490 | 3230 | 4360 | 6130 | 12000 |
| 2026-04-30 13:00 | 12.81 | 4880 | 15300 (1959) | 296 (1946) | 2730 | 445 | 519 | 872 | 966 | 1490 | 3230 | 4360 | 6130 | 12000 |
| 2026-04-30 12:00 | 12.91 | 4980 | 15300 (1959) | 296 (1946) | 2730 | 445 | 519 | 872 | 966 | 1490 | 3230 | 4360 | 6130 | 12000 |
| 2026-04-30 11:00 | 13.03 | 5100 | 15300 (1959) | 296 (1946) | 2730 | 445 | 519 | 872 | 966 | 1490 | 3230 | 4360 | 6130 | 12000 |
| 2026-04-30 10:00 | 13.14 | 5210 | 15300 (1959) | 296 (1946) | 2730 | 445 | 519 | 872 | 966 | 1490 | 3230 | 4360 | 6130 | 12000 |
| 2026-04-30 09:00 | 13.24 | 5300 | 15300 (1959) | 296 (1946) | 2730 | 445 | 519 | 872 | 966 | 1490 | 3230 | 4360 | 6130 | 12000 |
| 2026-04-30 08:00 | 13.33 | 5390 | 15300 (1959) | 296 (1946) | 2730 | 445 | 519 | 872 | 966 | 1490 | 3230 | 4360 | 6130 | 12000 |
| 2026-04-30 07:00 | 13.43 | 5480 | 15300 (1959) | 296 (1946) | 2730 | 445 | 519 | 872 | 966 | 1490 | 3230 | 4360 | 6130 | 12000 |
| 2026-04-30 05:15 | 13.57 | 5620 | 15300 (1959) | 296 (1946) | 2730 | 445 | 519 | 872 | 966 | 1490 | 3230 | 4360 | 6130 | 12000 |
| 2026-04-30 05:00 | 13.60 | 5650 | 15300 (1959) | 296 (1946) | 2730 | 445 | 519 | 872 | 966 | 1490 | 3230 | 4360 | 6130 | 12000 |
| 2026-04-30 04:00 | 13.67 | 5710 | 15300 (1959) | 296 (1946) | 2730 | 445 | 519 | 872 | 966 | 1490 | 3230 | 4360 | 6130 | 12000 |
| 2026-04-30 03:00 | 13.74 | 5780 | 15300 (1959) | 296 (1946) | 2730 | 445 | 519 | 872 | 966 | 1490 | 3230 | 4360 | 6130 | 12000 |
| 2026-04-30 02:00 | 13.80 | 5840 | 15300 (1959) | 296 (1946) | 2730 | 445 | 519 | 872 | 966 | 1490 | 3230 | 4360 | 6130 | 12000 |
| 2026-04-30 01:00 | 13.85 | 5890 | 15300 (1959) | 296 (1946) | 2730 | 445 | 519 | 872 | 966 | 1490 | 3230 | 4360 | 6130 | 12000 |
| 2026-04-30 00:00 | 13.90 | 5940 | 15300 (1959) | 296 (1946) | 2730 | 445 | 519 | 872 | 966 | 1490 | 3230 | 4360 | 6130 | 12000 |
| 2026-04-29 23:00 | 13.97 | 6000 | 15300 (1959) | 296 (1946) | 2730 | 445 | 519 | 872 | 966 | 1490 | 3230 | 4360 | 6130 | 12000 |
| 2026-04-29 22:00 | 14.01 | 6040 | 14500 (1961) | 296 (1946) | 2630 | 435 | 560 | 890 | 981 | 1490 | 3350 | 3900 | 5860 | 10000 |
| 2026-04-29 21:00 | 14.05 | 6080 | 14500 (1961) | 296 (1946) | 2630 | 435 | 560 | 890 | 981 | 1490 | 3350 | 3900 | 5860 | 10000 |
| 2026-04-29 20:00 | 14.09 | 6120 | 14500 (1961) | 296 (1946) | 2630 | 435 | 560 | 890 | 981 | 1490 | 3350 | 3900 | 5860 | 10000 |
| 2026-04-29 19:00 | 14.13 | 6160 | 14500 (1961) | 296 (1946) | 2630 | 435 | 560 | 890 | 981 | 1490 | 3350 | 3900 | 5860 | 10000 |
| 2026-04-29 18:00 | 14.16 | 6190 | 14500 (1961) | 296 (1946) | 2630 | 435 | 560 | 890 | 981 | 1490 | 3350 | 3900 | 5860 | 10000 |
| 2026-04-29 17:00 | 14.19 | 6220 | 14500 (1961) | 296 (1946) | 2630 | 435 | 560 | 890 | 981 | 1490 | 3350 | 3900 | 5860 | 10000 |
| 2026-04-29 16:00 | 14.21 | 6240 | 14500 (1961) | 296 (1946) | 2630 | 435 | 560 | 890 | 981 | 1490 | 3350 | 3900 | 5860 | 10000 |
| 2026-04-29 15:00 | 14.22 | 6250 | 14500 (1961) | 296 (1946) | 2630 | 435 | 560 | 890 | 981 | 1490 | 3350 | 3900 | 5860 | 10000 |
| 2026-04-29 14:00 | 14.22 | 6250 | 14500 (1961) | 296 (1946) | 2630 | 435 | 560 | 890 | 981 | 1490 | 3350 | 3900 | 5860 | 10000 |
| 2026-04-29 13:00 | 14.22 | 6250 | 14500 (1961) | 296 (1946) | 2630 | 435 | 560 | 890 | 981 | 1490 | 3350 | 3900 | 5860 | 10000 |
| 2026-04-29 12:00 | 14.22 | 6250 | 14500 (1961) | 296 (1946) | 2630 | 435 | 560 | 890 | 981 | 1490 | 3350 | 3900 | 5860 | 10000 |
| 2026-04-29 11:00 | 14.20 | 6230 | 14500 (1961) | 296 (1946) | 2630 | 435 | 560 | 890 | 981 | 1490 | 3350 | 3900 | 5860 | 10000 |
| 2026-04-29 10:00 | 14.20 | 6230 | 14500 (1961) | 296 (1946) | 2630 | 435 | 560 | 890 | 981 | 1490 | 3350 | 3900 | 5860 | 10000 |
| 2026-04-29 09:00 | 14.17 | 6200 | 14500 (1961) | 296 (1946) | 2630 | 435 | 560 | 890 | 981 | 1490 | 3350 | 3900 | 5860 | 10000 |
| 2026-04-29 08:00 | 14.13 | 6160 | 14500 (1961) | 296 (1946) | 2630 | 435 | 560 | 890 | 981 | 1490 | 3350 | 3900 | 5860 | 10000 |
| 2026-04-29 06:30 | 14.09 | 6120 | 14500 (1961) | 296 (1946) | 2630 | 435 | 560 | 890 | 981 | 1490 | 3350 | 3900 | 5860 | 10000 |
| 2026-04-29 06:00 | 14.06 | 6090 | 14500 (1961) | 296 (1946) | 2630 | 435 | 560 | 890 | 981 | 1490 | 3350 | 3900 | 5860 | 10000 |
| 2026-04-29 05:00 | 14.01 | 6040 | 14500 (1961) | 296 (1946) | 2630 | 435 | 560 | 890 | 981 | 1490 | 3350 | 3900 | 5860 | 10000 |
| 2026-04-29 04:00 | 13.94 | 5970 | 14500 (1961) | 296 (1946) | 2630 | 435 | 560 | 890 | 981 | 1490 | 3350 | 3900 | 5860 | 10000 |
| 2026-04-29 03:00 | 13.86 | 5900 | 14500 (1961) | 296 (1946) | 2630 | 435 | 560 | 890 | 981 | 1490 | 3350 | 3900 | 5860 | 10000 |
| 2026-04-29 02:00 | 13.76 | 5800 | 14500 (1961) | 296 (1946) | 2630 | 435 | 560 | 890 | 981 | 1490 | 3350 | 3900 | 5860 | 10000 |
| 2026-04-28 23:00 | 13.39 | 5450 | 14500 (1961) | 296 (1946) | 2630 | 435 | 560 | 890 | 981 | 1490 | 3350 | 3900 | 5860 | 10000 |
| 2026-04-28 22:00 | 13.23 | 5300 | 13800 (1961) | 296 (1946) | 2550 | 454 | 578 | 794 | 917 | 1520 | 3160 | 4140 | 6390 | 7660 |
| 2026-04-28 21:00 | 13.08 | 5150 | 13800 (1961) | 296 (1946) | 2550 | 454 | 578 | 794 | 917 | 1520 | 3160 | 4140 | 6390 | 7660 |
| 2026-04-28 20:00 | 12.93 | 5000 | 13800 (1961) | 296 (1946) | 2550 | 454 | 578 | 794 | 917 | 1520 | 3160 | 4140 | 6390 | 7660 |
| 2026-04-28 19:00 | 12.79 | 4860 | 13800 (1961) | 296 (1946) | 2550 | 454 | 578 | 794 | 917 | 1520 | 3160 | 4140 | 6390 | 7660 |
| 2026-04-28 18:00 | 12.68 | 4750 | 13800 (1961) | 296 (1946) | 2550 | 454 | 578 | 794 | 917 | 1520 | 3160 | 4140 | 6390 | 7660 |
| 2026-04-28 17:00 | 12.59 | 4660 | 13800 (1961) | 296 (1946) | 2550 | 454 | 578 | 794 | 917 | 1520 | 3160 | 4140 | 6390 | 7660 |
| 2026-04-28 16:00 | 12.54 | 4620 | 13800 (1961) | 296 (1946) | 2550 | 454 | 578 | 794 | 917 | 1520 | 3160 | 4140 | 6390 | 7660 |
| 2026-04-28 15:00 | 12.45 | 4530 | 13800 (1961) | 296 (1946) | 2550 | 454 | 578 | 794 | 917 | 1520 | 3160 | 4140 | 6390 | 7660 |
| 2026-04-28 14:00 | 12.36 | 4440 | 13800 (1961) | 296 (1946) | 2550 | 454 | 578 | 794 | 917 | 1520 | 3160 | 4140 | 6390 | 7660 |
| 2026-04-28 13:00 | 12.21 | 4300 | 13800 (1961) | 296 (1946) | 2550 | 454 | 578 | 794 | 917 | 1520 | 3160 | 4140 | 6390 | 7660 |
| 2026-04-28 12:00 | 12.04 | 4150 | 13800 (1961) | 296 (1946) | 2550 | 454 | 578 | 794 | 917 | 1520 | 3160 | 4140 | 6390 | 7660 |
| 2026-04-28 11:00 | 11.83 | 3960 | 13800 (1961) | 296 (1946) | 2550 | 454 | 578 | 794 | 917 | 1520 | 3160 | 4140 | 6390 | 7660 |
| 2026-04-28 10:00 | 11.58 | 3740 | 13800 (1961) | 296 (1946) | 2550 | 454 | 578 | 794 | 917 | 1520 | 3160 | 4140 | 6390 | 7660 |
| 2026-04-28 09:00 | 11.37 | 3560 | 13800 (1961) | 296 (1946) | 2550 | 454 | 578 | 794 | 917 | 1520 | 3160 | 4140 | 6390 | 7660 |
| 2026-04-28 08:00 | 11.18 | 3410 | 13800 (1961) | 296 (1946) | 2550 | 454 | 578 | 794 | 917 | 1520 | 3160 | 4140 | 6390 | 7660 |
| 2026-04-28 07:00 | 10.99 | 3250 | 13800 (1961) | 296 (1946) | 2550 | 454 | 578 | 794 | 917 | 1520 | 3160 | 4140 | 6390 | 7660 |
| 2026-04-28 06:00 | 10.84 | 3130 | 13800 (1961) | 296 (1946) | 2550 | 454 | 578 | 794 | 917 | 1520 | 3160 | 4140 | 6390 | 7660 |
| 2026-04-28 03:00 | 10.48 | 2820 | 13800 (1961) | 296 (1946) | 2550 | 454 | 578 | 794 | 917 | 1520 | 3160 | 4140 | 6390 | 7660 |
| 2026-04-28 02:00 | 10.38 | 2730 | 13800 (1961) | 296 (1946) | 2550 | 454 | 578 | 794 | 917 | 1520 | 3160 | 4140 | 6390 | 7660 |
| 2026-04-28 01:00 | 10.29 | 2650 | 13800 (1961) | 296 (1946) | 2550 | 454 | 578 | 794 | 917 | 1520 | 3160 | 4140 | 6390 | 7660 |
| 2026-04-28 00:00 | 10.18 | 2560 | 13800 (1961) | 296 (1946) | 2550 | 454 | 578 | 794 | 917 | 1520 | 3160 | 4140 | 6390 | 7660 |
| 2026-04-27 23:00 | 10.07 | 2470 | 13800 (1961) | 296 (1946) | 2550 | 454 | 578 | 794 | 917 | 1520 | 3160 | 4140 | 6390 | 7660 |
| 2026-04-27 22:00 | 1 | 2410 | 13100 (1961) | 266 (1946) | 2610 | 463 | 560 | 809 | 927 | 1390 | 3410 | 4250 | 6540 | 7840 |
| 2026-04-27 21:00 | 9.91 | 2340 | 13100 (1961) | 266 (1946) | 2610 | 463 | 560 | 809 | 927 | 1390 | 3410 | 4250 | 6540 | 7840 |
| 2026-04-27 20:00 | 9.85 | 2290 | 13100 (1961) | 266 (1946) | 2610 | 463 | 560 | 809 | 927 | 1390 | 3410 | 4250 | 6540 | 7840 |
| 2026-04-27 19:00 | 9.80 | 2250 | 13100 (1961) | 266 (1946) | 2610 | 463 | 560 | 809 | 927 | 1390 | 3410 | 4250 | 6540 | 7840 |
| 2026-04-27 18:00 | 9.79 | 2240 | 13100 (1961) | 266 (1946) | 2610 | 463 | 560 | 809 | 927 | 1390 | 3410 | 4250 | 6540 | 7840 |
| 2026-04-27 17:00 | 9.77 | 2220 | 13100 (1961) | 266 (1946) | 2610 | 463 | 560 | 809 | 927 | 1390 | 3410 | 4250 | 6540 | 7840 |
| 2026-04-27 16:00 | 9.76 | 2210 | 13100 (1961) | 266 (1946) | 2610 | 463 | 560 | 809 | 927 | 1390 | 3410 | 4250 | 6540 | 7840 |
| 2026-04-27 15:00 | 9.77 | 2220 | 13100 (1961) | 266 (1946) | 2610 | 463 | 560 | 809 | 927 | 1390 | 3410 | 4250 | 6540 | 7840 |
| 2026-04-27 14:00 | 9.79 | 2240 | 13100 (1961) | 266 (1946) | 2610 | 463 | 560 | 809 | 927 | 1390 | 3410 | 4250 | 6540 | 7840 |
| 2026-04-27 13:00 | 9.81 | 2260 | 13100 (1961) | 266 (1946) | 2610 | 463 | 560 | 809 | 927 | 1390 | 3410 | 4250 | 6540 | 7840 |
| 2026-04-27 12:00 | 9.86 | 2300 | 13100 (1961) | 266 (1946) | 2610 | 463 | 560 | 809 | 927 | 1390 | 3410 | 4250 | 6540 | 7840 |
| 2026-04-27 11:00 | 9.91 | 2340 | 13100 (1961) | 266 (1946) | 2610 | 463 | 560 | 809 | 927 | 1390 | 3410 | 4250 | 6540 | 7840 |
| 2026-04-27 10:00 | 9.95 | 2370 | 13100 (1961) | 266 (1946) | 2610 | 463 | 560 | 809 | 927 | 1390 | 3410 | 4250 | 6540 | 7840 |
| 2026-04-27 09:00 | 10.01 | 2420 | 13100 (1961) | 266 (1946) | 2610 | 463 | 560 | 809 | 927 | 1390 | 3410 | 4250 | 6540 | 7840 |
| 2026-04-27 08:00 | 10.07 | 2470 | 13100 (1961) | 266 (1946) | 2610 | 463 | 560 | 809 | 927 | 1390 | 3410 | 4250 | 6540 | 7840 |
| 2026-04-27 07:00 | 10.13 | 2520 | 13100 (1961) | 266 (1946) | 2610 | 463 | 560 | 809 | 927 | 1390 | 3410 | 4250 | 6540 | 7840 |
| 2026-04-27 06:00 | 10.21 | 2590 | 13100 (1961) | 266 (1946) | 2610 | 463 | 560 | 809 | 927 | 1390 | 3410 | 4250 | 6540 | 7840 |
| 2026-04-27 05:00 | 10.27 | 2640 | 13100 (1961) | 266 (1946) | 2610 | 463 | 560 | 809 | 927 | 1390 | 3410 | 4250 | 6540 | 7840 |
| 2026-04-27 04:00 | 10.34 | 2700 | 13100 (1961) | 266 (1946) | 2610 | 463 | 560 | 809 | 927 | 1390 | 3410 | 4250 | 6540 | 7840 |
| 2026-04-27 03:00 | 10.41 | 2760 | 13100 (1961) | 266 (1946) | 2610 | 463 | 560 | 809 | 927 | 1390 | 3410 | 4250 | 6540 | 7840 |
| 2026-04-27 02:00 | 10.46 | 2800 | 13100 (1961) | 266 (1946) | 2610 | 463 | 560 | 809 | 927 | 1390 | 3410 | 4250 | 6540 | 7840 |
| 2026-04-27 01:00 | 10.51 | 2850 | 13100 (1961) | 266 (1946) | 2610 | 463 | 560 | 809 | 927 | 1390 | 3410 | 4250 | 6540 | 7840 |
| 2026-04-27 00:00 | 10.54 | 2870 | 13100 (1961) | 266 (1946) | 2610 | 463 | 560 | 809 | 927 | 1390 | 3410 | 4250 | 6540 | 7840 |
| 2026-04-26 23:00 | 10.56 | 2890 | 13100 (1961) | 266 (1946) | 2610 | 463 | 560 | 809 | 927 | 1390 | 3410 | 4250 | 6540 | 7840 |
| 2026-04-26 22:00 | 10.56 | 2890 | 12800 (1961) | 328 (1946) | 2830 | 498 | 538 | 848 | 910 | 1510 | 4020 | 5060 | 7760 | 9120 |
| 2026-04-26 21:00 | 10.55 | 2880 | 12800 (1961) | 328 (1946) | 2830 | 498 | 538 | 848 | 910 | 1510 | 4020 | 5060 | 7760 | 9120 |
| 2026-04-26 20:00 | 10.51 | 2850 | 12800 (1961) | 328 (1946) | 2830 | 498 | 538 | 848 | 910 | 1510 | 4020 | 5060 | 7760 | 9120 |
| 2026-04-26 19:00 | 10.47 | 2810 | 12800 (1961) | 328 (1946) | 2830 | 498 | 538 | 848 | 910 | 1510 | 4020 | 5060 | 7760 | 9120 |
| 2026-04-26 18:00 | 10.41 | 2760 | 12800 (1961) | 328 (1946) | 2830 | 498 | 538 | 848 | 910 | 1510 | 4020 | 5060 | 7760 | 9120 |
| 2026-04-26 17:00 | 10.37 | 2720 | 12800 (1961) | 328 (1946) | 2830 | 498 | 538 | 848 | 910 | 1510 | 4020 | 5060 | 7760 | 9120 |
| 2026-04-26 16:00 | 10.32 | 2680 | 12800 (1961) | 328 (1946) | 2830 | 498 | 538 | 848 | 910 | 1510 | 4020 | 5060 | 7760 | 9120 |
| 2026-04-26 15:00 | 10.29 | 2650 | 12800 (1961) | 328 (1946) | 2830 | 498 | 538 | 848 | 910 | 1510 | 4020 | 5060 | 7760 | 9120 |
| 2026-04-26 14:00 | 10.25 | 2620 | 12800 (1961) | 328 (1946) | 2830 | 498 | 538 | 848 | 910 | 1510 | 4020 | 5060 | 7760 | 9120 |
| 2026-04-26 13:00 | 10.24 | 2610 | 12800 (1961) | 328 (1946) | 2830 | 498 | 538 | 848 | 910 | 1510 | 4020 | 5060 | 7760 | 9120 |
| 2026-04-26 12:00 | 10.22 | 2590 | 12800 (1961) | 328 (1946) | 2830 | 498 | 538 | 848 | 910 | 1510 | 4020 | 5060 | 7760 | 9120 |
| 2026-04-26 11:00 | 10.21 | 2590 | 12800 (1961) | 328 (1946) | 2830 | 498 | 538 | 848 | 910 | 1510 | 4020 | 5060 | 7760 | 9120 |
| 2026-04-26 10:00 | 10.20 | 2580 | 12800 (1961) | 328 (1946) | 2830 | 498 | 538 | 848 | 910 | 1510 | 4020 | 5060 | 7760 | 9120 |
| 2026-04-26 09:00 | 10.18 | 2560 | 12800 (1961) | 328 (1946) | 2830 | 498 | 538 | 848 | 910 | 1510 | 4020 | 5060 | 7760 | 9120 |
| 2026-04-26 08:00 | 10.17 | 2550 | 12800 (1961) | 328 (1946) | 2830 | 498 | 538 | 848 | 910 | 1510 | 4020 | 5060 | 7760 | 9120 |
| 2026-04-26 07:00 | 10.16 | 2540 | 12800 (1961) | 328 (1946) | 2830 | 498 | 538 | 848 | 910 | 1510 | 4020 | 5060 | 7760 | 9120 |
| 2026-04-26 06:00 | 10.15 | 2540 | 12800 (1961) | 328 (1946) | 2830 | 498 | 538 | 848 | 910 | 1510 | 4020 | 5060 | 7760 | 9120 |
| 2026-04-26 05:00 | 10.15 | 2540 | 12800 (1961) | 328 (1946) | 2830 | 498 | 538 | 848 | 910 | 1510 | 4020 | 5060 | 7760 | 9120 |
| 2026-04-26 04:00 | 10.15 | 2540 | 12800 (1961) | 328 (1946) | 2830 | 498 | 538 | 848 | 910 | 1510 | 4020 | 5060 | 7760 | 9120 |
| 2026-04-26 03:00 | 10.16 | 2540 | 12800 (1961) | 328 (1946) | 2830 | 498 | 538 | 848 | 910 | 1510 | 4020 | 5060 | 7760 | 9120 |
| 2026-04-26 02:00 | 10.17 | 2550 | 12800 (1961) | 328 (1946) | 2830 | 498 | 538 | 848 | 910 | 1510 | 4020 | 5060 | 7760 | 9120 |
| 2026-04-26 01:00 | 10.19 | 2570 | 12800 (1961) | 328 (1946) | 2830 | 498 | 538 | 848 | 910 | 1510 | 4020 | 5060 | 7760 | 9120 |
| 2026-04-26 00:00 | 10.22 | 2590 | 12800 (1961) | 328 (1946) | 2830 | 498 | 538 | 848 | 910 | 1510 | 4020 | 5060 | 7760 | 9120 |
| 2026-04-25 23:00 | 10.24 | 2610 | 12800 (1961) | 328 (1946) | 2830 | 498 | 538 | 848 | 910 | 1510 | 4020 | 5060 | 7760 | 9120 |
| 2026-04-25 22:00 | 10.29 | 2650 | 11800 (1972) | 325 (1946) | 3020 | 439 | 539 | 881 | 983 | 1590 | 4730 | 5250 | 7830 | 10300 |
| 2026-04-25 21:00 | 10.33 | 2690 | 11800 (1972) | 325 (1946) | 3020 | 439 | 539 | 881 | 983 | 1590 | 4730 | 5250 | 7830 | 10300 |
| 2026-04-25 20:00 | 10.38 | 2730 | 11800 (1972) | 325 (1946) | 3020 | 439 | 539 | 881 | 983 | 1590 | 4730 | 5250 | 7830 | 10300 |
| 2026-04-25 19:00 | 10.42 | 2770 | 11800 (1972) | 325 (1946) | 3020 | 439 | 539 | 881 | 983 | 1590 | 4730 | 5250 | 7830 | 10300 |
| 2026-04-25 18:00 | 10.47 | 2810 | 11800 (1972) | 325 (1946) | 3020 | 439 | 539 | 881 | 983 | 1590 | 4730 | 5250 | 7830 | 10300 |
| 2026-04-25 17:00 | 10.54 | 2870 | 11800 (1972) | 325 (1946) | 3020 | 439 | 539 | 881 | 983 | 1590 | 4730 | 5250 | 7830 | 10300 |
| 2026-04-25 16:00 | 10.59 | 2920 | 11800 (1972) | 325 (1946) | 3020 | 439 | 539 | 881 | 983 | 1590 | 4730 | 5250 | 7830 | 10300 |
| 2026-04-25 15:00 | 10.65 | 2970 | 11800 (1972) | 325 (1946) | 3020 | 439 | 539 | 881 | 983 | 1590 | 4730 | 5250 | 7830 | 10300 |
| 2026-04-25 14:00 | 10.70 | 3020 | 11800 (1972) | 325 (1946) | 3020 | 439 | 539 | 881 | 983 | 1590 | 4730 | 5250 | 7830 | 10300 |
| 2026-04-25 13:00 | 10.75 | 3060 | 11800 (1972) | 325 (1946) | 3020 | 439 | 539 | 881 | 983 | 1590 | 4730 | 5250 | 7830 | 10300 |
| 2026-04-25 12:00 | 10.80 | 3100 | 11800 (1972) | 325 (1946) | 3020 | 439 | 539 | 881 | 983 | 1590 | 4730 | 5250 | 7830 | 10300 |
| 2026-04-25 11:00 | 10.85 | 3140 | 11800 (1972) | 325 (1946) | 3020 | 439 | 539 | 881 | 983 | 1590 | 4730 | 5250 | 7830 | 10300 |
| 2026-04-25 10:00 | 10.89 | 3170 | 11800 (1972) | 325 (1946) | 3020 | 439 | 539 | 881 | 983 | 1590 | 4730 | 5250 | 7830 | 10300 |
| 2026-04-25 09:00 | 10.93 | 3200 | 11800 (1972) | 325 (1946) | 3020 | 439 | 539 | 881 | 983 | 1590 | 4730 | 5250 | 7830 | 10300 |
| 2026-04-25 08:00 | 10.97 | 3240 | 11800 (1972) | 325 (1946) | 3020 | 439 | 539 | 881 | 983 | 1590 | 4730 | 5250 | 7830 | 10300 |
| 2026-04-25 07:00 | 11.01 | 3270 | 11800 (1972) | 325 (1946) | 3020 | 439 | 539 | 881 | 983 | 1590 | 4730 | 5250 | 7830 | 10300 |
| 2026-04-25 06:00 | 11.04 | 3290 | 11800 (1972) | 325 (1946) | 3020 | 439 | 539 | 881 | 983 | 1590 | 4730 | 5250 | 7830 | 10300 |
| 2026-04-25 05:00 | 11.07 | 3320 | 11800 (1972) | 325 (1946) | 3020 | 439 | 539 | 881 | 983 | 1590 | 4730 | 5250 | 7830 | 10300 |
| 2026-04-25 04:00 | 11.09 | 3330 | 11800 (1972) | 325 (1946) | 3020 | 439 | 539 | 881 | 983 | 1590 | 4730 | 5250 | 7830 | 10300 |
| 2026-04-25 03:00 | 11.11 | 3350 | 11800 (1972) | 325 (1946) | 3020 | 439 | 539 | 881 | 983 | 1590 | 4730 | 5250 | 7830 | 10300 |
| 2026-04-25 02:00 | 11.13 | 3370 | 11800 (1972) | 325 (1946) | 3020 | 439 | 539 | 881 | 983 | 1590 | 4730 | 5250 | 7830 | 10300 |
| 2026-04-25 01:00 | 11.14 | 3370 | 11800 (1972) | 325 (1946) | 3020 | 439 | 539 | 881 | 983 | 1590 | 4730 | 5250 | 7830 | 10300 |
| 2026-04-25 00:00 | 11.19 | 3420 | 11800 (1972) | 325 (1946) | 3020 | 439 | 539 | 881 | 983 | 1590 | 4730 | 5250 | 7830 | 10300 |
| 2026-04-24 23:00 | 11.18 | 3410 | 11800 (1972) | 325 (1946) | 3020 | 439 | 539 | 881 | 983 | 1590 | 4730 | 5250 | 7830 | 10300 |
| 2026-04-24 22:00 | 11.21 | 3430 | 12100 (1972) | 248 (1925) | 3110 | 454 | 607 | 882 | 995 | 1590 | 4900 | 5530 | 8410 | 10700 |
| 2026-04-24 21:00 | 11.23 | 3450 | 12100 (1972) | 248 (1925) | 3110 | 454 | 607 | 882 | 995 | 1590 | 4900 | 5530 | 8410 | 10700 |
| 2026-04-24 20:00 | 11.24 | 3460 | 12100 (1972) | 248 (1925) | 3110 | 454 | 607 | 882 | 995 | 1590 | 4900 | 5530 | 8410 | 10700 |
| 2026-04-24 19:00 | 11.27 | 3480 | 12100 (1972) | 248 (1925) | 3110 | 454 | 607 | 882 | 995 | 1590 | 4900 | 5530 | 8410 | 10700 |
| 2026-04-24 18:00 | 11.28 | 3490 | 12100 (1972) | 248 (1925) | 3110 | 454 | 607 | 882 | 995 | 1590 | 4900 | 5530 | 8410 | 10700 |
| 2026-04-24 17:00 | 11.29 | 3500 | 12100 (1972) | 248 (1925) | 3110 | 454 | 607 | 882 | 995 | 1590 | 4900 | 5530 | 8410 | 10700 |
| 2026-04-24 15:45 | 11.32 | 3520 | 12100 (1972) | 248 (1925) | 3110 | 454 | 607 | 882 | 995 | 1590 | 4900 | 5530 | 8410 | 10700 |
| 2026-04-24 15:00 | 11.34 | 3540 | 12100 (1972) | 248 (1925) | 3110 | 454 | 607 | 882 | 995 | 1590 | 4900 | 5530 | 8410 | 10700 |
| 2026-04-24 14:00 | 11.37 | 3560 | 12100 (1972) | 248 (1925) | 3110 | 454 | 607 | 882 | 995 | 1590 | 4900 | 5530 | 8410 | 10700 |
| 2026-04-24 12:45 | 11.40 | 3590 | 12100 (1972) | 248 (1925) | 3110 | 454 | 607 | 882 | 995 | 1590 | 4900 | 5530 | 8410 | 10700 |
| 2026-04-24 12:00 | 11.41 | 3600 | 12100 (1972) | 248 (1925) | 3110 | 454 | 607 | 882 | 995 | 1590 | 4900 | 5530 | 8410 | 10700 |
| 2026-04-24 11:00 | 11.44 | 3620 | 12100 (1972) | 248 (1925) | 3110 | 454 | 607 | 882 | 995 | 1590 | 4900 | 5530 | 8410 | 10700 |
| 2026-04-24 10:00 | 11.48 | 3660 | 12100 (1972) | 248 (1925) | 3110 | 454 | 607 | 882 | 995 | 1590 | 4900 | 5530 | 8410 | 10700 |
| 2026-04-24 09:00 | 11.50 | 3670 | 12100 (1972) | 248 (1925) | 3110 | 454 | 607 | 882 | 995 | 1590 | 4900 | 5530 | 8410 | 10700 |
| 2026-04-24 08:00 | 11.53 | 3700 | 12100 (1972) | 248 (1925) | 3110 | 454 | 607 | 882 | 995 | 1590 | 4900 | 5530 | 8410 | 10700 |
| 2026-04-24 07:00 | 11.55 | 3720 | 12100 (1972) | 248 (1925) | 3110 | 454 | 607 | 882 | 995 | 1590 | 4900 | 5530 | 8410 | 10700 |
| 2026-04-24 06:00 | 11.58 | 3740 | 12100 (1972) | 248 (1925) | 3110 | 454 | 607 | 882 | 995 | 1590 | 4900 | 5530 | 8410 | 10700 |
| 2026-04-24 05:00 | 11.61 | 3770 | 12100 (1972) | 248 (1925) | 3110 | 454 | 607 | 882 | 995 | 1590 | 4900 | 5530 | 8410 | 10700 |
| 2026-04-24 04:00 | 11.64 | 3790 | 12100 (1972) | 248 (1925) | 3110 | 454 | 607 | 882 | 995 | 1590 | 4900 | 5530 | 8410 | 10700 |
| 2026-04-24 03:00 | 11.68 | 3830 | 12100 (1972) | 248 (1925) | 3110 | 454 | 607 | 882 | 995 | 1590 | 4900 | 5530 | 8410 | 10700 |
| 2026-04-24 02:00 | 11.72 | 3860 | 12100 (1972) | 248 (1925) | 3110 | 454 | 607 | 882 | 995 | 1590 | 4900 | 5530 | 8410 | 10700 |
| 2026-04-24 01:00 | 11.77 | 3900 | 12100 (1972) | 248 (1925) | 3110 | 454 | 607 | 882 | 995 | 1590 | 4900 | 5530 | 8410 | 10700 |
| 2026-04-24 00:00 | 11.81 | 3940 | 12100 (1972) | 248 (1925) | 3110 | 454 | 607 | 882 | 995 | 1590 | 4900 | 5530 | 8410 | 10700 |
| 2026-04-23 23:00 | 11.86 | 3980 | 12100 (1972) | 248 (1925) | 3110 | 454 | 607 | 882 | 995 | 1590 | 4900 | 5530 | 8410 | 10700 |
| 2026-04-23 22:00 | 11.92 | 4040 | 11600 (1972) | 338 (1946) | 3090 | 535 | 627 | 808 | 1030 | 1720 | 4060 | 5660 | 8890 | 9560 |
| 2026-04-23 21:00 | 11.98 | 4090 | 11600 (1972) | 338 (1946) | 3090 | 535 | 627 | 808 | 1030 | 1720 | 4060 | 5660 | 8890 | 9560 |
| 2026-04-23 20:00 | 12.05 | 4150 | 11600 (1972) | 338 (1946) | 3090 | 535 | 627 | 808 | 1030 | 1720 | 4060 | 5660 | 8890 | 9560 |
| 2026-04-23 19:00 | 12.13 | 4230 | 11600 (1972) | 338 (1946) | 3090 | 535 | 627 | 808 | 1030 | 1720 | 4060 | 5660 | 8890 | 9560 |
| 2026-04-23 18:00 | 12.20 | 4290 | 11600 (1972) | 338 (1946) | 3090 | 535 | 627 | 808 | 1030 | 1720 | 4060 | 5660 | 8890 | 9560 |
| 2026-04-23 17:00 | 12.27 | 4360 | 11600 (1972) | 338 (1946) | 3090 | 535 | 627 | 808 | 1030 | 1720 | 4060 | 5660 | 8890 | 9560 |
| 2026-04-23 16:00 | 12.36 | 4440 | 11600 (1972) | 338 (1946) | 3090 | 535 | 627 | 808 | 1030 | 1720 | 4060 | 5660 | 8890 | 9560 |
| 2026-04-23 15:00 | 12.44 | 4520 | 11600 (1972) | 338 (1946) | 3090 | 535 | 627 | 808 | 1030 | 1720 | 4060 | 5660 | 8890 | 9560 |
| 2026-04-23 14:00 | 12.52 | 4600 | 11600 (1972) | 338 (1946) | 3090 | 535 | 627 | 808 | 1030 | 1720 | 4060 | 5660 | 8890 | 9560 |
| 2026-04-23 13:00 | 12.60 | 4670 | 11600 (1972) | 338 (1946) | 3090 | 535 | 627 | 808 | 1030 | 1720 | 4060 | 5660 | 8890 | 9560 |
| 2026-04-23 12:00 | 12.69 | 4760 | 11600 (1972) | 338 (1946) | 3090 | 535 | 627 | 808 | 1030 | 1720 | 4060 | 5660 | 8890 | 9560 |
| 2026-04-23 11:00 | 12.75 | 4820 | 11600 (1972) | 338 (1946) | 3090 | 535 | 627 | 808 | 1030 | 1720 | 4060 | 5660 | 8890 | 9560 |
| 2026-04-23 10:00 | 12.80 | 4870 | 11600 (1972) | 338 (1946) | 3090 | 535 | 627 | 808 | 1030 | 1720 | 4060 | 5660 | 8890 | 9560 |
| 2026-04-23 08:45 | 12.85 | 4920 | 11600 (1972) | 338 (1946) | 3090 | 535 | 627 | 808 | 1030 | 1720 | 4060 | 5660 | 8890 | 9560 |
| 2026-04-23 08:00 | 12.87 | 4940 | 11600 (1972) | 338 (1946) | 3090 | 535 | 627 | 808 | 1030 | 1720 | 4060 | 5660 | 8890 | 9560 |
| 2026-04-23 07:00 | 12.89 | 4960 | 11600 (1972) | 338 (1946) | 3090 | 535 | 627 | 808 | 1030 | 1720 | 4060 | 5660 | 8890 | 9560 |
| 2026-04-23 06:00 | 12.88 | 4950 | 11600 (1972) | 338 (1946) | 3090 | 535 | 627 | 808 | 1030 | 1720 | 4060 | 5660 | 8890 | 9560 |
| 2026-04-23 05:00 | 12.83 | 4900 | 11600 (1972) | 338 (1946) | 3090 | 535 | 627 | 808 | 1030 | 1720 | 4060 | 5660 | 8890 | 9560 |
| 2026-04-23 04:00 | 12.79 | 4860 | 11600 (1972) | 338 (1946) | 3090 | 535 | 627 | 808 | 1030 | 1720 | 4060 | 5660 | 8890 | 9560 |
| 2026-04-23 03:00 | 12.70 | 4770 | 11600 (1972) | 338 (1946) | 3090 | 535 | 627 | 808 | 1030 | 1720 | 4060 | 5660 | 8890 | 9560 |
| 2026-04-23 02:00 | 12.62 | 4690 | 11600 (1972) | 338 (1946) | 3090 | 535 | 627 | 808 | 1030 | 1720 | 4060 | 5660 | 8890 | 9560 |
| 2026-04-23 01:00 | 12.51 | 4590 | 11600 (1972) | 338 (1946) | 3090 | 535 | 627 | 808 | 1030 | 1720 | 4060 | 5660 | 8890 | 9560 |
| 2026-04-23 00:00 | 12.42 | 4500 | 11600 (1972) | 338 (1946) | 3090 | 535 | 627 | 808 | 1030 | 1720 | 4060 | 5660 | 8890 | 9560 |
| 2026-04-22 23:00 | 12.35 | 4430 | 11600 (1972) | 338 (1946) | 3090 | 535 | 627 | 808 | 1030 | 1720 | 4060 | 5660 | 8890 | 9560 |
| 2026-04-22 22:00 | 12.28 | 4370 | 11000 (1970) | 351 (1946) | 3090 | 470 | 623 | 828 | 1010 | 1900 | 3690 | 5250 | 9150 | 10200 |
| 2026-04-22 21:00 | 12.25 | 4340 | 11000 (1970) | 351 (1946) | 3090 | 470 | 623 | 828 | 1010 | 1900 | 3690 | 5250 | 9150 | 10200 |
| 2026-04-22 20:00 | 12.24 | 4330 | 11000 (1970) | 351 (1946) | 3090 | 470 | 623 | 828 | 1010 | 1900 | 3690 | 5250 | 9150 | 10200 |
| 2026-04-22 19:00 | 12.24 | 4330 | 11000 (1970) | 351 (1946) | 3090 | 470 | 623 | 828 | 1010 | 1900 | 3690 | 5250 | 9150 | 10200 |
| 2026-04-22 18:00 | 12.28 | 4370 | 11000 (1970) | 351 (1946) | 3090 | 470 | 623 | 828 | 1010 | 1900 | 3690 | 5250 | 9150 | 10200 |
| 2026-04-22 17:00 | 12.29 | 4380 | 11000 (1970) | 351 (1946) | 3090 | 470 | 623 | 828 | 1010 | 1900 | 3690 | 5250 | 9150 | 10200 |
| 2026-04-22 16:00 | 12.31 | 4400 | 11000 (1970) | 351 (1946) | 3090 | 470 | 623 | 828 | 1010 | 1900 | 3690 | 5250 | 9150 | 10200 |
| 2026-04-22 15:00 | 12.31 | 4400 | 11000 (1970) | 351 (1946) | 3090 | 470 | 623 | 828 | 1010 | 1900 | 3690 | 5250 | 9150 | 10200 |
| 2026-04-22 14:00 | 12.35 | 4430 | 11000 (1970) | 351 (1946) | 3090 | 470 | 623 | 828 | 1010 | 1900 | 3690 | 5250 | 9150 | 10200 |
| 2026-04-22 13:00 | 12.38 | 4460 | 11000 (1970) | 351 (1946) | 3090 | 470 | 623 | 828 | 1010 | 1900 | 3690 | 5250 | 9150 | 10200 |
| 2026-04-22 12:00 | 12.41 | 4490 | 11000 (1970) | 351 (1946) | 3090 | 470 | 623 | 828 | 1010 | 1900 | 3690 | 5250 | 9150 | 10200 |
| 2026-04-22 11:00 | 12.45 | 4530 | 11000 (1970) | 351 (1946) | 3090 | 470 | 623 | 828 | 1010 | 1900 | 3690 | 5250 | 9150 | 10200 |
| 2026-04-22 10:00 | 12.46 | 4540 | 11000 (1970) | 351 (1946) | 3090 | 470 | 623 | 828 | 1010 | 1900 | 3690 | 5250 | 9150 | 10200 |
| 2026-04-22 09:00 | 12.50 | 4580 | 11000 (1970) | 351 (1946) | 3090 | 470 | 623 | 828 | 1010 | 1900 | 3690 | 5250 | 9150 | 10200 |
| 2026-04-22 08:00 | 12.53 | 4610 | 11000 (1970) | 351 (1946) | 3090 | 470 | 623 | 828 | 1010 | 1900 | 3690 | 5250 | 9150 | 10200 |
| 2026-04-22 07:00 | 12.56 | 4640 | 11000 (1970) | 351 (1946) | 3090 | 470 | 623 | 828 | 1010 | 1900 | 3690 | 5250 | 9150 | 10200 |
| 2026-04-22 06:00 | 12.59 | 4660 | 11000 (1970) | 351 (1946) | 3090 | 470 | 623 | 828 | 1010 | 1900 | 3690 | 5250 | 9150 | 10200 |
| 2026-04-22 05:00 | 12.62 | 4690 | 11000 (1970) | 351 (1946) | 3090 | 470 | 623 | 828 | 1010 | 1900 | 3690 | 5250 | 9150 | 10200 |
| 2026-04-22 04:00 | 12.65 | 4720 | 11000 (1970) | 351 (1946) | 3090 | 470 | 623 | 828 | 1010 | 1900 | 3690 | 5250 | 9150 | 10200 |
| 2026-04-22 03:00 | 12.67 | 4740 | 11000 (1970) | 351 (1946) | 3090 | 470 | 623 | 828 | 1010 | 1900 | 3690 | 5250 | 9150 | 10200 |
| 2026-04-22 02:00 | 12.71 | 4780 | 11000 (1970) | 351 (1946) | 3090 | 470 | 623 | 828 | 1010 | 1900 | 3690 | 5250 | 9150 | 10200 |
| 2026-04-22 01:00 | 12.72 | 4790 | 11000 (1970) | 351 (1946) | 3090 | 470 | 623 | 828 | 1010 | 1900 | 3690 | 5250 | 9150 | 10200 |
| 2026-04-22 00:00 | 12.77 | 4840 | 11000 (1970) | 351 (1946) | 3090 | 470 | 623 | 828 | 1010 | 1900 | 3690 | 5250 | 9150 | 10200 |
| 2026-04-21 23:00 | 12.80 | 4870 | 11000 (1970) | 351 (1946) | 3090 | 470 | 623 | 828 | 1010 | 1900 | 3690 | 5250 | 9150 | 10200 |
| 2026-04-21 22:00 | 12.83 | 4900 | 11000 (1970) | 354 (1946) | 3140 | 486 | 665 | 814 | 1010 | 1900 | 4220 | 4650 | 8230 | 10100 |
| 2026-04-21 21:00 | 12.84 | 4910 | 11000 (1970) | 354 (1946) | 3140 | 486 | 665 | 814 | 1010 | 1900 | 4220 | 4650 | 8230 | 10100 |
| 2026-04-21 20:00 | 12.86 | 4930 | 11000 (1970) | 354 (1946) | 3140 | 486 | 665 | 814 | 1010 | 1900 | 4220 | 4650 | 8230 | 10100 |
| 2026-04-21 19:00 | 12.88 | 4950 | 11000 (1970) | 354 (1946) | 3140 | 486 | 665 | 814 | 1010 | 1900 | 4220 | 4650 | 8230 | 10100 |
| 2026-04-21 18:00 | 12.91 | 4980 | 11000 (1970) | 354 (1946) | 3140 | 486 | 665 | 814 | 1010 | 1900 | 4220 | 4650 | 8230 | 10100 |
| 2026-04-21 17:00 | 12.93 | 5000 | 11000 (1970) | 354 (1946) | 3140 | 486 | 665 | 814 | 1010 | 1900 | 4220 | 4650 | 8230 | 10100 |
| 2026-04-21 16:00 | 12.95 | 5020 | 11000 (1970) | 354 (1946) | 3140 | 486 | 665 | 814 | 1010 | 1900 | 4220 | 4650 | 8230 | 10100 |
| 2026-04-21 15:00 | 13.01 | 5080 | 11000 (1970) | 354 (1946) | 3140 | 486 | 665 | 814 | 1010 | 1900 | 4220 | 4650 | 8230 | 10100 |
| 2026-04-21 14:00 | 12.98 | 5050 | 11000 (1970) | 354 (1946) | 3140 | 486 | 665 | 814 | 1010 | 1900 | 4220 | 4650 | 8230 | 10100 |
| 2026-04-21 13:00 | 13.05 | 5120 | 11000 (1970) | 354 (1946) | 3140 | 486 | 665 | 814 | 1010 | 1900 | 4220 | 4650 | 8230 | 10100 |
| 2026-04-21 12:00 | 13.06 | 5130 | 11000 (1970) | 354 (1946) | 3140 | 486 | 665 | 814 | 1010 | 1900 | 4220 | 4650 | 8230 | 10100 |
| 2026-04-21 11:00 | 13.08 | 5150 | 11000 (1970) | 354 (1946) | 3140 | 486 | 665 | 814 | 1010 | 1900 | 4220 | 4650 | 8230 | 10100 |
| 2026-04-21 10:00 | 13.12 | 5190 | 11000 (1970) | 354 (1946) | 3140 | 486 | 665 | 814 | 1010 | 1900 | 4220 | 4650 | 8230 | 10100 |
| 2026-04-21 09:00 | 13.13 | 5200 | 11000 (1970) | 354 (1946) | 3140 | 486 | 665 | 814 | 1010 | 1900 | 4220 | 4650 | 8230 | 10100 |
| 2026-04-21 08:00 | 13.16 | 5230 | 11000 (1970) | 354 (1946) | 3140 | 486 | 665 | 814 | 1010 | 1900 | 4220 | 4650 | 8230 | 10100 |
| 2026-04-21 07:00 | 13.18 | 5250 | 11000 (1970) | 354 (1946) | 3140 | 486 | 665 | 814 | 1010 | 1900 | 4220 | 4650 | 8230 | 10100 |
| 2026-04-21 06:00 | 13.20 | 5270 | 11000 (1970) | 354 (1946) | 3140 | 486 | 665 | 814 | 1010 | 1900 | 4220 | 4650 | 8230 | 10100 |
| 2026-04-21 05:00 | 13.22 | 5290 | 11000 (1970) | 354 (1946) | 3140 | 486 | 665 | 814 | 1010 | 1900 | 4220 | 4650 | 8230 | 10100 |
| 2026-04-21 04:00 | 13.23 | 5300 | 11000 (1970) | 354 (1946) | 3140 | 486 | 665 | 814 | 1010 | 1900 | 4220 | 4650 | 8230 | 10100 |
| 2026-04-21 03:00 | 13.25 | 5310 | 11000 (1970) | 354 (1946) | 3140 | 486 | 665 | 814 | 1010 | 1900 | 4220 | 4650 | 8230 | 10100 |
| 2026-04-21 02:00 | 13.28 | 5340 | 11000 (1970) | 354 (1946) | 3140 | 486 | 665 | 814 | 1010 | 1900 | 4220 | 4650 | 8230 | 10100 |
| 2026-04-21 01:00 | 13.30 | 5360 | 11000 (1970) | 354 (1946) | 3140 | 486 | 665 | 814 | 1010 | 1900 | 4220 | 4650 | 8230 | 10100 |
| 2026-04-21 00:00 | 13.32 | 5380 | 11000 (1970) | 354 (1946) | 3140 | 486 | 665 | 814 | 1010 | 1900 | 4220 | 4650 | 8230 | 10100 |
| 2026-04-20 23:00 | 13.34 | 5400 | 11000 (1970) | 354 (1946) | 3140 | 486 | 665 | 814 | 1010 | 1900 | 4220 | 4650 | 8230 | 10100 |
| 2026-04-20 21:00 | 13.37 | 5430 | 11800 (1922) | 380 (1946) | 3090 | 503 | 624 | 910 | 1040 | 1920 | 4460 | 5250 | 8300 | 9910 |
| 2026-04-20 19:45 | 13.39 | 5450 | 11800 (1922) | 380 (1946) | 3090 | 503 | 624 | 910 | 1040 | 1920 | 4460 | 5250 | 8300 | 9910 |
| 2026-04-20 19:00 | 13.41 | 5460 | 11800 (1922) | 380 (1946) | 3090 | 503 | 624 | 910 | 1040 | 1920 | 4460 | 5250 | 8300 | 9910 |
| 2026-04-20 18:00 | 13.42 | 5470 | 11800 (1922) | 380 (1946) | 3090 | 503 | 624 | 910 | 1040 | 1920 | 4460 | 5250 | 8300 | 9910 |
| 2026-04-20 17:00 | 13.45 | 5500 | 11800 (1922) | 380 (1946) | 3090 | 503 | 624 | 910 | 1040 | 1920 | 4460 | 5250 | 8300 | 9910 |
| 2026-04-20 16:00 | 13.46 | 5510 | 11800 (1922) | 380 (1946) | 3090 | 503 | 624 | 910 | 1040 | 1920 | 4460 | 5250 | 8300 | 9910 |
| 2026-04-20 14:45 | 13.52 | 5570 | 11800 (1922) | 380 (1946) | 3090 | 503 | 624 | 910 | 1040 | 1920 | 4460 | 5250 | 8300 | 9910 |
| 2026-04-20 14:00 | 13.54 | 5590 | 11800 (1922) | 380 (1946) | 3090 | 503 | 624 | 910 | 1040 | 1920 | 4460 | 5250 | 8300 | 9910 |
| 2026-04-20 13:00 | 13.58 | 5630 | 11800 (1922) | 380 (1946) | 3090 | 503 | 624 | 910 | 1040 | 1920 | 4460 | 5250 | 8300 | 9910 |
| 2026-04-20 12:00 | 13.62 | 5660 | 11800 (1922) | 380 (1946) | 3090 | 503 | 624 | 910 | 1040 | 1920 | 4460 | 5250 | 8300 | 9910 |
| 2026-04-20 10:45 | 13.66 | 5700 | 11800 (1922) | 380 (1946) | 3090 | 503 | 624 | 910 | 1040 | 1920 | 4460 | 5250 | 8300 | 9910 |
| 2026-04-20 10:00 | 13.69 | 5730 | 11800 (1922) | 380 (1946) | 3090 | 503 | 624 | 910 | 1040 | 1920 | 4460 | 5250 | 8300 | 9910 |
| 2026-04-20 09:00 | 13.72 | 5760 | 11800 (1922) | 380 (1946) | 3090 | 503 | 624 | 910 | 1040 | 1920 | 4460 | 5250 | 8300 | 9910 |
| 2026-04-20 08:00 | 13.75 | 5790 | 11800 (1922) | 380 (1946) | 3090 | 503 | 624 | 910 | 1040 | 1920 | 4460 | 5250 | 8300 | 9910 |
| 2026-04-20 07:00 | 13.77 | 5810 | 11800 (1922) | 380 (1946) | 3090 | 503 | 624 | 910 | 1040 | 1920 | 4460 | 5250 | 8300 | 9910 |
| 2026-04-20 06:00 | 13.79 | 5830 | 11800 (1922) | 380 (1946) | 3090 | 503 | 624 | 910 | 1040 | 1920 | 4460 | 5250 | 8300 | 9910 |
| 2026-04-20 05:00 | 13.82 | 5860 | 11800 (1922) | 380 (1946) | 3090 | 503 | 624 | 910 | 1040 | 1920 | 4460 | 5250 | 8300 | 9910 |
| 2026-04-20 04:00 | 13.84 | 5880 | 11800 (1922) | 380 (1946) | 3090 | 503 | 624 | 910 | 1040 | 1920 | 4460 | 5250 | 8300 | 9910 |
| 2026-04-20 03:00 | 13.85 | 5890 | 11800 (1922) | 380 (1946) | 3090 | 503 | 624 | 910 | 1040 | 1920 | 4460 | 5250 | 8300 | 9910 |
| 2026-04-20 02:00 | 13.85 | 5890 | 11800 (1922) | 380 (1946) | 3090 | 503 | 624 | 910 | 1040 | 1920 | 4460 | 5250 | 8300 | 9910 |
| 2026-04-20 01:00 | 13.86 | 5900 | 11800 (1922) | 380 (1946) | 3090 | 503 | 624 | 910 | 1040 | 1920 | 4460 | 5250 | 8300 | 9910 |
| 2026-04-20 00:00 | 13.84 | 5880 | 11800 (1922) | 380 (1946) | 3090 | 503 | 624 | 910 | 1040 | 1920 | 4460 | 5250 | 8300 | 9910 |
| 2026-04-19 23:00 | 13.82 | 5860 | 11800 (1922) | 380 (1946) | 3090 | 503 | 624 | 910 | 1040 | 1920 | 4460 | 5250 | 8300 | 9910 |
| 2026-04-19 22:00 | 13.82 | 5860 | 12400 (1922) | 394 (1946) | 3060 | 505 | 702 | 899 | 947 | 1720 | 4300 | 4760 | 8360 | 8900 |
| 2026-04-19 21:00 | 13.80 | 5840 | 12400 (1922) | 394 (1946) | 3060 | 505 | 702 | 899 | 947 | 1720 | 4300 | 4760 | 8360 | 8900 |
| 2026-04-19 20:00 | 13.77 | 5810 | 12400 (1922) | 394 (1946) | 3060 | 505 | 702 | 899 | 947 | 1720 | 4300 | 4760 | 8360 | 8900 |
| 2026-04-19 19:00 | 13.75 | 5790 | 12400 (1922) | 394 (1946) | 3060 | 505 | 702 | 899 | 947 | 1720 | 4300 | 4760 | 8360 | 8900 |
| 2026-04-19 18:00 | 13.74 | 5780 | 12400 (1922) | 394 (1946) | 3060 | 505 | 702 | 899 | 947 | 1720 | 4300 | 4760 | 8360 | 8900 |
| 2026-04-19 17:00 | 13.69 | 5730 | 12400 (1922) | 394 (1946) | 3060 | 505 | 702 | 899 | 947 | 1720 | 4300 | 4760 | 8360 | 8900 |
| 2026-04-19 16:00 | 13.68 | 5720 | 12400 (1922) | 394 (1946) | 3060 | 505 | 702 | 899 | 947 | 1720 | 4300 | 4760 | 8360 | 8900 |
| 2026-04-19 15:00 | 13.67 | 5710 | 12400 (1922) | 394 (1946) | 3060 | 505 | 702 | 899 | 947 | 1720 | 4300 | 4760 | 8360 | 8900 |
| 2026-04-19 14:00 | 13.65 | 5690 | 12400 (1922) | 394 (1946) | 3060 | 505 | 702 | 899 | 947 | 1720 | 4300 | 4760 | 8360 | 8900 |
| 2026-04-19 13:00 | 13.64 | 5680 | 12400 (1922) | 394 (1946) | 3060 | 505 | 702 | 899 | 947 | 1720 | 4300 | 4760 | 8360 | 8900 |
| 2026-04-19 12:00 | 13.63 | 5670 | 12400 (1922) | 394 (1946) | 3060 | 505 | 702 | 899 | 947 | 1720 | 4300 | 4760 | 8360 | 8900 |
| 2026-04-19 11:00 | 13.64 | 5680 | 12400 (1922) | 394 (1946) | 3060 | 505 | 702 | 899 | 947 | 1720 | 4300 | 4760 | 8360 | 8900 |
| 2026-04-19 10:00 | 13.64 | 5680 | 12400 (1922) | 394 (1946) | 3060 | 505 | 702 | 899 | 947 | 1720 | 4300 | 4760 | 8360 | 8900 |
| 2026-04-19 08:45 | 13.65 | 5690 | 12400 (1922) | 394 (1946) | 3060 | 505 | 702 | 899 | 947 | 1720 | 4300 | 4760 | 8360 | 8900 |
| 2026-04-19 08:00 | 13.63 | 5670 | 12400 (1922) | 394 (1946) | 3060 | 505 | 702 | 899 | 947 | 1720 | 4300 | 4760 | 8360 | 8900 |
| 2026-04-19 07:00 | 13.62 | 5660 | 12400 (1922) | 394 (1946) | 3060 | 505 | 702 | 899 | 947 | 1720 | 4300 | 4760 | 8360 | 8900 |
| 2026-04-19 06:00 | 13.59 | 5640 | 12400 (1922) | 394 (1946) | 3060 | 505 | 702 | 899 | 947 | 1720 | 4300 | 4760 | 8360 | 8900 |
| 2026-04-19 05:00 | 13.56 | 5610 | 12400 (1922) | 394 (1946) | 3060 | 505 | 702 | 899 | 947 | 1720 | 4300 | 4760 | 8360 | 8900 |
| 2026-04-19 04:00 | 13.51 | 5560 | 12400 (1922) | 394 (1946) | 3060 | 505 | 702 | 899 | 947 | 1720 | 4300 | 4760 | 8360 | 8900 |
| 2026-04-19 03:00 | 13.44 | 5490 | 12400 (1922) | 394 (1946) | 3060 | 505 | 702 | 899 | 947 | 1720 | 4300 | 4760 | 8360 | 8900 |
| 2026-04-19 02:00 | 13.36 | 5420 | 12400 (1922) | 394 (1946) | 3060 | 505 | 702 | 899 | 947 | 1720 | 4300 | 4760 | 8360 | 8900 |
| 2026-04-19 01:00 | 13.25 | 5310 | 12400 (1922) | 394 (1946) | 3060 | 505 | 702 | 899 | 947 | 1720 | 4300 | 4760 | 8360 | 8900 |
| 2026-04-19 00:00 | 13.15 | 5220 | 12400 (1922) | 394 (1946) | 3060 | 505 | 702 | 899 | 947 | 1720 | 4300 | 4760 | 8360 | 8900 |
| 2026-04-18 23:00 | 13.04 | 5110 | 12400 (1922) | 394 (1946) | 3060 | 505 | 702 | 899 | 947 | 1720 | 4300 | 4760 | 8360 | 8900 |
| 2026-04-18 22:00 | 12.93 | 5000 | 12900 (1922) | 408 (1946) | 3070 | 505 | 809 | 933 | 999 | 1890 | 4580 | 5110 | 6470 | 10600 |
| 2026-04-18 21:00 | 12.82 | 4890 | 12900 (1922) | 408 (1946) | 3070 | 505 | 809 | 933 | 999 | 1890 | 4580 | 5110 | 6470 | 10600 |
| 2026-04-18 20:00 | 12.73 | 4800 | 12900 (1922) | 408 (1946) | 3070 | 505 | 809 | 933 | 999 | 1890 | 4580 | 5110 | 6470 | 10600 |
| 2026-04-18 19:00 | 12.65 | 4720 | 12900 (1922) | 408 (1946) | 3070 | 505 | 809 | 933 | 999 | 1890 | 4580 | 5110 | 6470 | 10600 |
| 2026-04-18 18:00 | 12.56 | 4640 | 12900 (1922) | 408 (1946) | 3070 | 505 | 809 | 933 | 999 | 1890 | 4580 | 5110 | 6470 | 10600 |
| 2026-04-18 17:00 | 12.47 | 4550 | 12900 (1922) | 408 (1946) | 3070 | 505 | 809 | 933 | 999 | 1890 | 4580 | 5110 | 6470 | 10600 |
| 2026-04-18 16:00 | 12.36 | 4440 | 12900 (1922) | 408 (1946) | 3070 | 505 | 809 | 933 | 999 | 1890 | 4580 | 5110 | 6470 | 10600 |
| 2026-04-18 15:00 | 12.26 | 4350 | 12900 (1922) | 408 (1946) | 3070 | 505 | 809 | 933 | 999 | 1890 | 4580 | 5110 | 6470 | 10600 |
| 2026-04-18 14:00 | 12.14 | 4240 | 12900 (1922) | 408 (1946) | 3070 | 505 | 809 | 933 | 999 | 1890 | 4580 | 5110 | 6470 | 10600 |
| 2026-04-18 12:45 | 12.03 | 4140 | 12900 (1922) | 408 (1946) | 3070 | 505 | 809 | 933 | 999 | 1890 | 4580 | 5110 | 6470 | 10600 |
| 2026-04-18 12:00 | 11.98 | 4090 | 12900 (1922) | 408 (1946) | 3070 | 505 | 809 | 933 | 999 | 1890 | 4580 | 5110 | 6470 | 10600 |
| 2026-04-18 11:00 | 11.96 | 4070 | 12900 (1922) | 408 (1946) | 3070 | 505 | 809 | 933 | 999 | 1890 | 4580 | 5110 | 6470 | 10600 |
| 2026-04-18 10:00 | 11.94 | 4050 | 12900 (1922) | 408 (1946) | 3070 | 505 | 809 | 933 | 999 | 1890 | 4580 | 5110 | 6470 | 10600 |
| 2026-04-18 09:00 | 11.92 | 4040 | 12900 (1922) | 408 (1946) | 3070 | 505 | 809 | 933 | 999 | 1890 | 4580 | 5110 | 6470 | 10600 |
| 2026-04-18 08:00 | 11.94 | 4050 | 12900 (1922) | 408 (1946) | 3070 | 505 | 809 | 933 | 999 | 1890 | 4580 | 5110 | 6470 | 10600 |
| 2026-04-18 07:00 | 11.95 | 4060 | 12900 (1922) | 408 (1946) | 3070 | 505 | 809 | 933 | 999 | 1890 | 4580 | 5110 | 6470 | 10600 |
| 2026-04-18 06:00 | 11.99 | 4100 | 12900 (1922) | 408 (1946) | 3070 | 505 | 809 | 933 | 999 | 1890 | 4580 | 5110 | 6470 | 10600 |
| 2026-04-18 05:00 | 12.02 | 4130 | 12900 (1922) | 408 (1946) | 3070 | 505 | 809 | 933 | 999 | 1890 | 4580 | 5110 | 6470 | 10600 |
| 2026-04-18 04:00 | 12.07 | 4170 | 12900 (1922) | 408 (1946) | 3070 | 505 | 809 | 933 | 999 | 1890 | 4580 | 5110 | 6470 | 10600 |
| 2026-04-18 03:00 | 12.13 | 4230 | 12900 (1922) | 408 (1946) | 3070 | 505 | 809 | 933 | 999 | 1890 | 4580 | 5110 | 6470 | 10600 |
| 2026-04-18 02:00 | 12.19 | 4280 | 12900 (1922) | 408 (1946) | 3070 | 505 | 809 | 933 | 999 | 1890 | 4580 | 5110 | 6470 | 10600 |
| 2026-04-18 01:00 | 12.26 | 4350 | 12900 (1922) | 408 (1946) | 3070 | 505 | 809 | 933 | 999 | 1890 | 4580 | 5110 | 6470 | 10600 |
| 2026-04-18 00:00 | 12.30 | 4390 | 12900 (1922) | 408 (1946) | 3070 | 505 | 809 | 933 | 999 | 1890 | 4580 | 5110 | 6470 | 10600 |
| 2026-04-17 23:00 | 12.35 | 4430 | 12900 (1922) | 408 (1946) | 3070 | 505 | 809 | 933 | 999 | 1890 | 4580 | 5110 | 6470 | 10600 |
| 2026-04-17 22:00 | 12.37 | 4450 | 15700 (1944) | 404 (1946) | 3060 | 507 | 771 | 940 | 1060 | 2160 | 4120 | 5130 | 6650 | 8600 |
| 2026-04-17 21:00 | 12.42 | 4500 | 15700 (1944) | 404 (1946) | 3060 | 507 | 771 | 940 | 1060 | 2160 | 4120 | 5130 | 6650 | 8600 |
| 2026-04-17 20:00 | 12.46 | 4540 | 15700 (1944) | 404 (1946) | 3060 | 507 | 771 | 940 | 1060 | 2160 | 4120 | 5130 | 6650 | 8600 |
| 2026-04-17 19:00 | 12.48 | 4560 | 15700 (1944) | 404 (1946) | 3060 | 507 | 771 | 940 | 1060 | 2160 | 4120 | 5130 | 6650 | 8600 |
| 2026-04-17 18:00 | 12.51 | 4590 | 15700 (1944) | 404 (1946) | 3060 | 507 | 771 | 940 | 1060 | 2160 | 4120 | 5130 | 6650 | 8600 |
| 2026-04-17 17:00 | 12.53 | 4610 | 15700 (1944) | 404 (1946) | 3060 | 507 | 771 | 940 | 1060 | 2160 | 4120 | 5130 | 6650 | 8600 |
| 2026-04-17 16:00 | 12.55 | 4630 | 15700 (1944) | 404 (1946) | 3060 | 507 | 771 | 940 | 1060 | 2160 | 4120 | 5130 | 6650 | 8600 |
| 2026-04-17 15:00 | 12.58 | 4650 | 15700 (1944) | 404 (1946) | 3060 | 507 | 771 | 940 | 1060 | 2160 | 4120 | 5130 | 6650 | 8600 |
| 2026-04-17 13:30 | 12.63 | 4700 | 15700 (1944) | 404 (1946) | 3060 | 507 | 771 | 940 | 1060 | 2160 | 4120 | 5130 | 6650 | 8600 |
| 2026-04-17 13:00 | 12.65 | 4720 | 15700 (1944) | 404 (1946) | 3060 | 507 | 771 | 940 | 1060 | 2160 | 4120 | 5130 | 6650 | 8600 |
| 2026-04-17 11:00 | 12.74 | 4810 | 15700 (1944) | 404 (1946) | 3060 | 507 | 771 | 940 | 1060 | 2160 | 4120 | 5130 | 6650 | 8600 |
| 2026-04-17 10:00 | 12.79 | 4860 | 15700 (1944) | 404 (1946) | 3060 | 507 | 771 | 940 | 1060 | 2160 | 4120 | 5130 | 6650 | 8600 |
| 2026-04-17 09:00 | 12.84 | 4910 | 15700 (1944) | 404 (1946) | 3060 | 507 | 771 | 940 | 1060 | 2160 | 4120 | 5130 | 6650 | 8600 |
| 2026-04-17 08:00 | 12.90 | 4970 | 15700 (1944) | 404 (1946) | 3060 | 507 | 771 | 940 | 1060 | 2160 | 4120 | 5130 | 6650 | 8600 |
| 2026-04-17 07:00 | 12.96 | 5030 | 15700 (1944) | 404 (1946) | 3060 | 507 | 771 | 940 | 1060 | 2160 | 4120 | 5130 | 6650 | 8600 |
| 2026-04-17 06:00 | 13.01 | 5080 | 15700 (1944) | 404 (1946) | 3060 | 507 | 771 | 940 | 1060 | 2160 | 4120 | 5130 | 6650 | 8600 |
| 2026-04-17 05:00 | 13.06 | 5130 | 15700 (1944) | 404 (1946) | 3060 | 507 | 771 | 940 | 1060 | 2160 | 4120 | 5130 | 6650 | 8600 |
| 2026-04-17 04:00 | 13.08 | 5150 | 15700 (1944) | 404 (1946) | 3060 | 507 | 771 | 940 | 1060 | 2160 | 4120 | 5130 | 6650 | 8600 |
| 2026-04-17 03:00 | 13.10 | 5170 | 15700 (1944) | 404 (1946) | 3060 | 507 | 771 | 940 | 1060 | 2160 | 4120 | 5130 | 6650 | 8600 |
| 2026-04-17 02:00 | 13.12 | 5190 | 15700 (1944) | 404 (1946) | 3060 | 507 | 771 | 940 | 1060 | 2160 | 4120 | 5130 | 6650 | 8600 |
| 2026-04-17 01:00 | 13.13 | 5200 | 15700 (1944) | 404 (1946) | 3060 | 507 | 771 | 940 | 1060 | 2160 | 4120 | 5130 | 6650 | 8600 |
| 2026-04-17 00:00 | 13.13 | 5200 | 15700 (1944) | 404 (1946) | 3060 | 507 | 771 | 940 | 1060 | 2160 | 4120 | 5130 | 6650 | 8600 |
| 2026-04-16 23:00 | 13.11 | 5180 | 15700 (1944) | 404 (1946) | 3060 | 507 | 771 | 940 | 1060 | 2160 | 4120 | 5130 | 6650 | 8600 |
| 2026-04-16 22:00 | 13.11 | 5180 | 17700 (1944) | 401 (1946) | 3130 | 533 | 695 | 1020 | 1140 | 2110 | 4060 | 4740 | 6860 | 8080 |
| 2026-04-16 21:00 | 13.09 | 5160 | 17700 (1944) | 401 (1946) | 3130 | 533 | 695 | 1020 | 1140 | 2110 | 4060 | 4740 | 6860 | 8080 |
| 2026-04-16 20:00 | 13.06 | 5130 | 17700 (1944) | 401 (1946) | 3130 | 533 | 695 | 1020 | 1140 | 2110 | 4060 | 4740 | 6860 | 8080 |
| 2026-04-16 19:00 | 13.04 | 5110 | 17700 (1944) | 401 (1946) | 3130 | 533 | 695 | 1020 | 1140 | 2110 | 4060 | 4740 | 6860 | 8080 |
| 2026-04-16 18:00 | 12.97 | 5040 | 17700 (1944) | 401 (1946) | 3130 | 533 | 695 | 1020 | 1140 | 2110 | 4060 | 4740 | 6860 | 8080 |
| 2026-04-16 17:00 | 12.88 | 4950 | 17700 (1944) | 401 (1946) | 3130 | 533 | 695 | 1020 | 1140 | 2110 | 4060 | 4740 | 6860 | 8080 |
| 2026-04-16 16:00 | 12.77 | 4840 | 17700 (1944) | 401 (1946) | 3130 | 533 | 695 | 1020 | 1140 | 2110 | 4060 | 4740 | 6860 | 8080 |
| 2026-04-16 15:00 | 12.64 | 4710 | 17700 (1944) | 401 (1946) | 3130 | 533 | 695 | 1020 | 1140 | 2110 | 4060 | 4740 | 6860 | 8080 |
| 2026-04-16 14:00 | 12.51 | 4590 | 17700 (1944) | 401 (1946) | 3130 | 533 | 695 | 1020 | 1140 | 2110 | 4060 | 4740 | 6860 | 8080 |
| 2026-04-16 13:00 | 12.38 | 4460 | 17700 (1944) | 401 (1946) | 3130 | 533 | 695 | 1020 | 1140 | 2110 | 4060 | 4740 | 6860 | 8080 |
| 2026-04-16 12:00 | 12.27 | 4360 | 17700 (1944) | 401 (1946) | 3130 | 533 | 695 | 1020 | 1140 | 2110 | 4060 | 4740 | 6860 | 8080 |
| 2026-04-16 11:00 | 12.18 | 4280 | 17700 (1944) | 401 (1946) | 3130 | 533 | 695 | 1020 | 1140 | 2110 | 4060 | 4740 | 6860 | 8080 |
| 2026-04-16 10:00 | 12.10 | 4200 | 17700 (1944) | 401 (1946) | 3130 | 533 | 695 | 1020 | 1140 | 2110 | 4060 | 4740 | 6860 | 8080 |
| 2026-04-16 09:00 | 12.05 | 4150 | 17700 (1944) | 401 (1946) | 3130 | 533 | 695 | 1020 | 1140 | 2110 | 4060 | 4740 | 6860 | 8080 |
| 2026-04-16 08:00 | 12.02 | 4130 | 17700 (1944) | 401 (1946) | 3130 | 533 | 695 | 1020 | 1140 | 2110 | 4060 | 4740 | 6860 | 8080 |
| 2026-04-16 07:00 | 12.00 | 4110 | 17700 (1944) | 401 (1946) | 3130 | 533 | 695 | 1020 | 1140 | 2110 | 4060 | 4740 | 6860 | 8080 |
| 2026-04-16 06:00 | 11.97 | 4080 | 17700 (1944) | 401 (1946) | 3130 | 533 | 695 | 1020 | 1140 | 2110 | 4060 | 4740 | 6860 | 8080 |
| 2026-04-16 05:00 | 11.95 | 4060 | 17700 (1944) | 401 (1946) | 3130 | 533 | 695 | 1020 | 1140 | 2110 | 4060 | 4740 | 6860 | 8080 |
| 2026-04-16 04:00 | 11.91 | 4030 | 17700 (1944) | 401 (1946) | 3130 | 533 | 695 | 1020 | 1140 | 2110 | 4060 | 4740 | 6860 | 8080 |
| 2026-04-16 03:00 | 11.86 | 3980 | 17700 (1944) | 401 (1946) | 3130 | 533 | 695 | 1020 | 1140 | 2110 | 4060 | 4740 | 6860 | 8080 |
| 2026-04-16 02:00 | 11.77 | 3900 | 17700 (1944) | 401 (1946) | 3130 | 533 | 695 | 1020 | 1140 | 2110 | 4060 | 4740 | 6860 | 8080 |
| 2026-04-16 01:00 | 11.65 | 3800 | 17700 (1944) | 401 (1946) | 3130 | 533 | 695 | 1020 | 1140 | 2110 | 4060 | 4740 | 6860 | 8080 |
| 2026-04-16 00:00 | 11.50 | 3670 | 17700 (1944) | 401 (1946) | 3130 | 533 | 695 | 1020 | 1140 | 2110 | 4060 | 4740 | 6860 | 8080 |
| 2026-04-15 22:45 | 11.24 | 3460 | 18400 (1944) | 436 (1946) | 3290 | 552 | 721 | 1010 | 1210 | 2300 | 4080 | 5130 | 7730 | 8790 |
| 2026-04-15 22:00 | 11.07 | 3320 | 18400 (1944) | 436 (1946) | 3290 | 552 | 721 | 1010 | 1210 | 2300 | 4080 | 5130 | 7730 | 8790 |
| 2026-04-15 21:00 | 10.85 | 3140 | 18400 (1944) | 436 (1946) | 3290 | 552 | 721 | 1010 | 1210 | 2300 | 4080 | 5130 | 7730 | 8790 |
| 2026-04-15 20:00 | 10.66 | 2980 | 18400 (1944) | 436 (1946) | 3290 | 552 | 721 | 1010 | 1210 | 2300 | 4080 | 5130 | 7730 | 8790 |
| 2026-04-15 19:00 | 10.53 | 2860 | 18400 (1944) | 436 (1946) | 3290 | 552 | 721 | 1010 | 1210 | 2300 | 4080 | 5130 | 7730 | 8790 |
| 2026-04-15 18:00 | 10.45 | 2790 | 18400 (1944) | 436 (1946) | 3290 | 552 | 721 | 1010 | 1210 | 2300 | 4080 | 5130 | 7730 | 8790 |
| 2026-04-15 17:00 | 10.37 | 2720 | 18400 (1944) | 436 (1946) | 3290 | 552 | 721 | 1010 | 1210 | 2300 | 4080 | 5130 | 7730 | 8790 |
| 2026-04-15 16:00 | 10.35 | 2710 | 18400 (1944) | 436 (1946) | 3290 | 552 | 721 | 1010 | 1210 | 2300 | 4080 | 5130 | 7730 | 8790 |
| 2026-04-15 15:00 | 10.22 | 2590 | 18400 (1944) | 436 (1946) | 3290 | 552 | 721 | 1010 | 1210 | 2300 | 4080 | 5130 | 7730 | 8790 |
| 2026-04-15 14:00 | 10.09 | 2480 | 18400 (1944) | 436 (1946) | 3290 | 552 | 721 | 1010 | 1210 | 2300 | 4080 | 5130 | 7730 | 8790 |
| 2026-04-15 13:00 | 10.08 | 2480 | 18400 (1944) | 436 (1946) | 3290 | 552 | 721 | 1010 | 1210 | 2300 | 4080 | 5130 | 7730 | 8790 |
| 2026-04-15 12:00 | 10.09 | 2480 | 18400 (1944) | 436 (1946) | 3290 | 552 | 721 | 1010 | 1210 | 2300 | 4080 | 5130 | 7730 | 8790 |
| 2026-04-15 11:00 | 10.08 | 2480 | 18400 (1944) | 436 (1946) | 3290 | 552 | 721 | 1010 | 1210 | 2300 | 4080 | 5130 | 7730 | 8790 |
| 2026-04-15 10:00 | 10.08 | 2480 | 18400 (1944) | 436 (1946) | 3290 | 552 | 721 | 1010 | 1210 | 2300 | 4080 | 5130 | 7730 | 8790 |
| 2026-04-15 09:00 | 10.09 | 2480 | 18400 (1944) | 436 (1946) | 3290 | 552 | 721 | 1010 | 1210 | 2300 | 4080 | 5130 | 7730 | 8790 |
| 2026-04-15 08:00 | 10.08 | 2480 | 18400 (1944) | 436 (1946) | 3290 | 552 | 721 | 1010 | 1210 | 2300 | 4080 | 5130 | 7730 | 8790 |
| 2026-04-15 07:00 | 10.09 | 2480 | 18400 (1944) | 436 (1946) | 3290 | 552 | 721 | 1010 | 1210 | 2300 | 4080 | 5130 | 7730 | 8790 |
| 2026-04-15 06:00 | 10.10 | 2490 | 18400 (1944) | 436 (1946) | 3290 | 552 | 721 | 1010 | 1210 | 2300 | 4080 | 5130 | 7730 | 8790 |
| 2026-04-15 05:00 | 10.11 | 2500 | 18400 (1944) | 436 (1946) | 3290 | 552 | 721 | 1010 | 1210 | 2300 | 4080 | 5130 | 7730 | 8790 |
| 2026-04-15 04:00 | 10.12 | 2510 | 18400 (1944) | 436 (1946) | 3290 | 552 | 721 | 1010 | 1210 | 2300 | 4080 | 5130 | 7730 | 8790 |
| 2026-04-15 03:00 | 10.13 | 2520 | 18400 (1944) | 436 (1946) | 3290 | 552 | 721 | 1010 | 1210 | 2300 | 4080 | 5130 | 7730 | 8790 |
| 2026-04-15 02:00 | 10.14 | 2530 | 18400 (1944) | 436 (1946) | 3290 | 552 | 721 | 1010 | 1210 | 2300 | 4080 | 5130 | 7730 | 8790 |
| 2026-04-15 01:00 | 10.14 | 2530 | 18400 (1944) | 436 (1946) | 3290 | 552 | 721 | 1010 | 1210 | 2300 | 4080 | 5130 | 7730 | 8790 |
| 2026-04-15 00:00 | 10.14 | 2530 | 18400 (1944) | 436 (1946) | 3290 | 552 | 721 | 1010 | 1210 | 2300 | 4080 | 5130 | 7730 | 8790 |
| 2026-04-14 23:00 | 10.11 | 2500 | 18400 (1944) | 436 (1946) | 3290 | 552 | 721 | 1010 | 1210 | 2300 | 4080 | 5130 | 7730 | 8790 |
| 2026-04-14 22:00 | 10.06 | 2460 | 20000 (1944) | 428 (1946) | 3480 | 582 | 730 | 1260 | 1350 | 2310 | 4310 | 5180 | 7820 | 10200 |
| 2026-04-14 21:00 | 10.01 | 2420 | 20000 (1944) | 428 (1946) | 3480 | 582 | 730 | 1260 | 1350 | 2310 | 4310 | 5180 | 7820 | 10200 |
| 2026-04-14 20:00 | 9.94 | 2360 | 20000 (1944) | 428 (1946) | 3480 | 582 | 730 | 1260 | 1350 | 2310 | 4310 | 5180 | 7820 | 10200 |
| 2026-04-14 19:00 | 9.88 | 2310 | 20000 (1944) | 428 (1946) | 3480 | 582 | 730 | 1260 | 1350 | 2310 | 4310 | 5180 | 7820 | 10200 |
| 2026-04-14 18:00 | 9.85 | 2290 | 20000 (1944) | 428 (1946) | 3480 | 582 | 730 | 1260 | 1350 | 2310 | 4310 | 5180 | 7820 | 10200 |
| 2026-04-14 17:00 | 9.83 | 2270 | 20000 (1944) | 428 (1946) | 3480 | 582 | 730 | 1260 | 1350 | 2310 | 4310 | 5180 | 7820 | 10200 |
| 2026-04-14 16:00 | 9.84 | 2280 | 20000 (1944) | 428 (1946) | 3480 | 582 | 730 | 1260 | 1350 | 2310 | 4310 | 5180 | 7820 | 10200 |
| 2026-04-14 15:00 | 9.85 | 2290 | 20000 (1944) | 428 (1946) | 3480 | 582 | 730 | 1260 | 1350 | 2310 | 4310 | 5180 | 7820 | 10200 |
| 2026-04-14 14:00 | 9.84 | 2280 | 20000 (1944) | 428 (1946) | 3480 | 582 | 730 | 1260 | 1350 | 2310 | 4310 | 5180 | 7820 | 10200 |
| 2026-04-14 13:00 | 9.85 | 2290 | 20000 (1944) | 428 (1946) | 3480 | 582 | 730 | 1260 | 1350 | 2310 | 4310 | 5180 | 7820 | 10200 |
| 2026-04-14 12:00 | 9.85 | 2290 | 20000 (1944) | 428 (1946) | 3480 | 582 | 730 | 1260 | 1350 | 2310 | 4310 | 5180 | 7820 | 10200 |
| 2026-04-14 10:00 | 9.82 | 2260 | 20000 (1944) | 428 (1946) | 3480 | 582 | 730 | 1260 | 1350 | 2310 | 4310 | 5180 | 7820 | 10200 |
| 2026-04-14 09:00 | 9.80 | 2250 | 20000 (1944) | 428 (1946) | 3480 | 582 | 730 | 1260 | 1350 | 2310 | 4310 | 5180 | 7820 | 10200 |
| 2026-04-14 08:00 | 9.78 | 2230 | 20000 (1944) | 428 (1946) | 3480 | 582 | 730 | 1260 | 1350 | 2310 | 4310 | 5180 | 7820 | 10200 |
| 2026-04-14 07:00 | 9.75 | 2210 | 20000 (1944) | 428 (1946) | 3480 | 582 | 730 | 1260 | 1350 | 2310 | 4310 | 5180 | 7820 | 10200 |
| 2026-04-14 06:00 | 9.71 | 2180 | 20000 (1944) | 428 (1946) | 3480 | 582 | 730 | 1260 | 1350 | 2310 | 4310 | 5180 | 7820 | 10200 |
| 2026-04-14 05:00 | 9.68 | 2150 | 20000 (1944) | 428 (1946) | 3480 | 582 | 730 | 1260 | 1350 | 2310 | 4310 | 5180 | 7820 | 10200 |
| 2026-04-14 04:00 | 9.65 | 2130 | 20000 (1944) | 428 (1946) | 3480 | 582 | 730 | 1260 | 1350 | 2310 | 4310 | 5180 | 7820 | 10200 |
| 2026-04-14 03:00 | 9.64 | 2120 | 20000 (1944) | 428 (1946) | 3480 | 582 | 730 | 1260 | 1350 | 2310 | 4310 | 5180 | 7820 | 10200 |
| 2026-04-14 01:45 | 9.64 | 2120 | 20000 (1944) | 428 (1946) | 3480 | 582 | 730 | 1260 | 1350 | 2310 | 4310 | 5180 | 7820 | 10200 |
| 2026-04-14 01:00 | 9.65 | 2130 | 20000 (1944) | 428 (1946) | 3480 | 582 | 730 | 1260 | 1350 | 2310 | 4310 | 5180 | 7820 | 10200 |
| 2026-04-14 00:00 | 9.67 | 2140 | 20000 (1944) | 428 (1946) | 3480 | 582 | 730 | 1260 | 1350 | 2310 | 4310 | 5180 | 7820 | 10200 |
| 2026-04-13 23:00 | 9.70 | 2170 | 20000 (1944) | 428 (1946) | 3480 | 582 | 730 | 1260 | 1350 | 2310 | 4310 | 5180 | 7820 | 10200 |
| 2026-04-13 21:45 | 9.74 | 2200 | 20600 (1944) | 221 (1930) | 3670 | 568 | 782 | 1210 | 1510 | 2220 | 4530 | 5520 | 9560 | 11400 |
| 2026-04-13 21:00 | 9.77 | 2220 | 20600 (1944) | 221 (1930) | 3670 | 568 | 782 | 1210 | 1510 | 2220 | 4530 | 5520 | 9560 | 11400 |
| 2026-04-13 20:00 | 9.80 | 2250 | 20600 (1944) | 221 (1930) | 3670 | 568 | 782 | 1210 | 1510 | 2220 | 4530 | 5520 | 9560 | 11400 |
| 2026-04-13 19:00 | 9.83 | 2270 | 20600 (1944) | 221 (1930) | 3670 | 568 | 782 | 1210 | 1510 | 2220 | 4530 | 5520 | 9560 | 11400 |
| 2026-04-13 18:00 | 9.83 | 2270 | 20600 (1944) | 221 (1930) | 3670 | 568 | 782 | 1210 | 1510 | 2220 | 4530 | 5520 | 9560 | 11400 |
| 2026-04-13 17:00 | 9.88 | 2310 | 20600 (1944) | 221 (1930) | 3670 | 568 | 782 | 1210 | 1510 | 2220 | 4530 | 5520 | 9560 | 11400 |
| 2026-04-13 15:45 | 9.91 | 2340 | 20600 (1944) | 221 (1930) | 3670 | 568 | 782 | 1210 | 1510 | 2220 | 4530 | 5520 | 9560 | 11400 |
| 2026-04-13 15:00 | 9.91 | 2340 | 20600 (1944) | 221 (1930) | 3670 | 568 | 782 | 1210 | 1510 | 2220 | 4530 | 5520 | 9560 | 11400 |
| 2026-04-13 14:00 | 9.93 | 2350 | 20600 (1944) | 221 (1930) | 3670 | 568 | 782 | 1210 | 1510 | 2220 | 4530 | 5520 | 9560 | 11400 |
| 2026-04-13 13:00 | 9.95 | 2370 | 20600 (1944) | 221 (1930) | 3670 | 568 | 782 | 1210 | 1510 | 2220 | 4530 | 5520 | 9560 | 11400 |
| 2026-04-13 12:00 | 9.97 | 2390 | 20600 (1944) | 221 (1930) | 3670 | 568 | 782 | 1210 | 1510 | 2220 | 4530 | 5520 | 9560 | 11400 |
| 2026-04-13 11:00 | 9.98 | 2390 | 20600 (1944) | 221 (1930) | 3670 | 568 | 782 | 1210 | 1510 | 2220 | 4530 | 5520 | 9560 | 11400 |
| 2026-04-13 10:00 | 9.99 | 2400 | 20600 (1944) | 221 (1930) | 3670 | 568 | 782 | 1210 | 1510 | 2220 | 4530 | 5520 | 9560 | 11400 |
| 2026-04-13 09:00 | 10.01 | 2420 | 20600 (1944) | 221 (1930) | 3670 | 568 | 782 | 1210 | 1510 | 2220 | 4530 | 5520 | 9560 | 11400 |
| 2026-04-13 08:00 | 10.04 | 2440 | 20600 (1944) | 221 (1930) | 3670 | 568 | 782 | 1210 | 1510 | 2220 | 4530 | 5520 | 9560 | 11400 |
| 2026-04-13 07:00 | 10.07 | 2470 | 20600 (1944) | 221 (1930) | 3670 | 568 | 782 | 1210 | 1510 | 2220 | 4530 | 5520 | 9560 | 11400 |
| 2026-04-13 06:00 | 10.10 | 2490 | 20600 (1944) | 221 (1930) | 3670 | 568 | 782 | 1210 | 1510 | 2220 | 4530 | 5520 | 9560 | 11400 |
| 2026-04-13 05:00 | 10.14 | 2530 | 20600 (1944) | 221 (1930) | 3670 | 568 | 782 | 1210 | 1510 | 2220 | 4530 | 5520 | 9560 | 11400 |
| 2026-04-13 03:45 | 10.21 | 2590 | 20600 (1944) | 221 (1930) | 3670 | 568 | 782 | 1210 | 1510 | 2220 | 4530 | 5520 | 9560 | 11400 |
| 2026-04-13 03:00 | 10.23 | 2600 | 20600 (1944) | 221 (1930) | 3670 | 568 | 782 | 1210 | 1510 | 2220 | 4530 | 5520 | 9560 | 11400 |
| 2026-04-13 02:00 | 10.29 | 2650 | 20600 (1944) | 221 (1930) | 3670 | 568 | 782 | 1210 | 1510 | 2220 | 4530 | 5520 | 9560 | 11400 |
| 2026-04-13 01:00 | 10.35 | 2710 | 20600 (1944) | 221 (1930) | 3670 | 568 | 782 | 1210 | 1510 | 2220 | 4530 | 5520 | 9560 | 11400 |
| 2026-04-13 00:00 | 10.40 | 2750 | 20600 (1944) | 221 (1930) | 3670 | 568 | 782 | 1210 | 1510 | 2220 | 4530 | 5520 | 9560 | 11400 |
| 2026-04-12 23:00 | 10.47 | 2810 | 20600 (1944) | 221 (1930) | 3670 | 568 | 782 | 1210 | 1510 | 2220 | 4530 | 5520 | 9560 | 11400 |
| 2026-04-12 22:00 | 10.54 | 2870 | 18400 (1944) | 482 (1946) | 3760 | 615 | 829 | 1160 | 1330 | 2370 | 4910 | 5390 | 10300 | 13000 |
| 2026-04-12 21:00 | 10.60 | 2930 | 18400 (1944) | 482 (1946) | 3760 | 615 | 829 | 1160 | 1330 | 2370 | 4910 | 5390 | 10300 | 13000 |
| 2026-04-12 20:00 | 10.68 | 3000 | 18400 (1944) | 482 (1946) | 3760 | 615 | 829 | 1160 | 1330 | 2370 | 4910 | 5390 | 10300 | 13000 |
| 2026-04-12 18:45 | 10.75 | 3060 | 18400 (1944) | 482 (1946) | 3760 | 615 | 829 | 1160 | 1330 | 2370 | 4910 | 5390 | 10300 | 13000 |
| 2026-04-12 18:00 | 10.82 | 3120 | 18400 (1944) | 482 (1946) | 3760 | 615 | 829 | 1160 | 1330 | 2370 | 4910 | 5390 | 10300 | 13000 |
| 2026-04-12 17:00 | 10.90 | 3180 | 18400 (1944) | 482 (1946) | 3760 | 615 | 829 | 1160 | 1330 | 2370 | 4910 | 5390 | 10300 | 13000 |
| 2026-04-12 16:00 | 10.96 | 3230 | 18400 (1944) | 482 (1946) | 3760 | 615 | 829 | 1160 | 1330 | 2370 | 4910 | 5390 | 10300 | 13000 |
| 2026-04-12 15:00 | 11.04 | 3290 | 18400 (1944) | 482 (1946) | 3760 | 615 | 829 | 1160 | 1330 | 2370 | 4910 | 5390 | 10300 | 13000 |
| 2026-04-12 14:00 | 11.12 | 3360 | 18400 (1944) | 482 (1946) | 3760 | 615 | 829 | 1160 | 1330 | 2370 | 4910 | 5390 | 10300 | 13000 |
| 2026-04-12 13:00 | 11.22 | 3440 | 18400 (1944) | 482 (1946) | 3760 | 615 | 829 | 1160 | 1330 | 2370 | 4910 | 5390 | 10300 | 13000 |
| 2026-04-12 12:00 | 11.29 | 3500 | 18400 (1944) | 482 (1946) | 3760 | 615 | 829 | 1160 | 1330 | 2370 | 4910 | 5390 | 10300 | 13000 |
| 2026-04-12 11:00 | 11.35 | 3550 | 18400 (1944) | 482 (1946) | 3760 | 615 | 829 | 1160 | 1330 | 2370 | 4910 | 5390 | 10300 | 13000 |
| 2026-04-12 10:00 | 11.43 | 3610 | 18400 (1944) | 482 (1946) | 3760 | 615 | 829 | 1160 | 1330 | 2370 | 4910 | 5390 | 10300 | 13000 |
| 2026-04-12 09:00 | 11.48 | 3660 | 18400 (1944) | 482 (1946) | 3760 | 615 | 829 | 1160 | 1330 | 2370 | 4910 | 5390 | 10300 | 13000 |
| 2026-04-12 08:00 | 11.53 | 3700 | 18400 (1944) | 482 (1946) | 3760 | 615 | 829 | 1160 | 1330 | 2370 | 4910 | 5390 | 10300 | 13000 |
| 2026-04-12 07:00 | 11.59 | 3750 | 18400 (1944) | 482 (1946) | 3760 | 615 | 829 | 1160 | 1330 | 2370 | 4910 | 5390 | 10300 | 13000 |
| 2026-04-12 06:00 | 11.63 | 3780 | 18400 (1944) | 482 (1946) | 3760 | 615 | 829 | 1160 | 1330 | 2370 | 4910 | 5390 | 10300 | 13000 |
| 2026-04-12 05:00 | 11.66 | 3810 | 18400 (1944) | 482 (1946) | 3760 | 615 | 829 | 1160 | 1330 | 2370 | 4910 | 5390 | 10300 | 13000 |
| 2026-04-12 04:00 | 11.70 | 3840 | 18400 (1944) | 482 (1946) | 3760 | 615 | 829 | 1160 | 1330 | 2370 | 4910 | 5390 | 10300 | 13000 |
| 2026-04-12 03:00 | 11.73 | 3870 | 18400 (1944) | 482 (1946) | 3760 | 615 | 829 | 1160 | 1330 | 2370 | 4910 | 5390 | 10300 | 13000 |
| 2026-04-12 02:00 | 11.76 | 3890 | 18400 (1944) | 482 (1946) | 3760 | 615 | 829 | 1160 | 1330 | 2370 | 4910 | 5390 | 10300 | 13000 |
| 2026-04-12 01:00 | 11.79 | 3920 | 18400 (1944) | 482 (1946) | 3760 | 615 | 829 | 1160 | 1330 | 2370 | 4910 | 5390 | 10300 | 13000 |
| 2026-04-12 00:00 | 11.82 | 3950 | 18400 (1944) | 482 (1946) | 3760 | 615 | 829 | 1160 | 1330 | 2370 | 4910 | 5390 | 10300 | 13000 |
| 2026-04-11 22:45 | 11.85 | 3970 | 16400 (1957) | 501 (1946) | 3710 | 645 | 755 | 1050 | 1270 | 2990 | 4490 | 4980 | 8070 | 12900 |
| 2026-04-11 22:00 | 11.87 | 3990 | 16400 (1957) | 501 (1946) | 3710 | 645 | 755 | 1050 | 1270 | 2990 | 4490 | 4980 | 8070 | 12900 |
| 2026-04-11 21:00 | 11.89 | 4010 | 16400 (1957) | 501 (1946) | 3710 | 645 | 755 | 1050 | 1270 | 2990 | 4490 | 4980 | 8070 | 12900 |
| 2026-04-11 20:00 | 11.92 | 4040 | 16400 (1957) | 501 (1946) | 3710 | 645 | 755 | 1050 | 1270 | 2990 | 4490 | 4980 | 8070 | 12900 |
| 2026-04-11 19:00 | 11.95 | 4060 | 16400 (1957) | 501 (1946) | 3710 | 645 | 755 | 1050 | 1270 | 2990 | 4490 | 4980 | 8070 | 12900 |
| 2026-04-11 18:00 | 11.98 | 4090 | 16400 (1957) | 501 (1946) | 3710 | 645 | 755 | 1050 | 1270 | 2990 | 4490 | 4980 | 8070 | 12900 |
| 2026-04-11 17:00 | 12.01 | 4120 | 16400 (1957) | 501 (1946) | 3710 | 645 | 755 | 1050 | 1270 | 2990 | 4490 | 4980 | 8070 | 12900 |
| 2026-04-11 16:00 | 12.03 | 4140 | 16400 (1957) | 501 (1946) | 3710 | 645 | 755 | 1050 | 1270 | 2990 | 4490 | 4980 | 8070 | 12900 |
| 2026-04-11 15:00 | 12.06 | 4160 | 16400 (1957) | 501 (1946) | 3710 | 645 | 755 | 1050 | 1270 | 2990 | 4490 | 4980 | 8070 | 12900 |
| 2026-04-11 14:00 | 12.09 | 4190 | 16400 (1957) | 501 (1946) | 3710 | 645 | 755 | 1050 | 1270 | 2990 | 4490 | 4980 | 8070 | 12900 |
| 2026-04-11 13:00 | 12.13 | 4230 | 16400 (1957) | 501 (1946) | 3710 | 645 | 755 | 1050 | 1270 | 2990 | 4490 | 4980 | 8070 | 12900 |
| 2026-04-11 12:00 | 12.16 | 4260 | 16400 (1957) | 501 (1946) | 3710 | 645 | 755 | 1050 | 1270 | 2990 | 4490 | 4980 | 8070 | 12900 |
| 2026-04-11 11:00 | 12.19 | 4280 | 16400 (1957) | 501 (1946) | 3710 | 645 | 755 | 1050 | 1270 | 2990 | 4490 | 4980 | 8070 | 12900 |
| 2026-04-11 10:00 | 12.24 | 4330 | 16400 (1957) | 501 (1946) | 3710 | 645 | 755 | 1050 | 1270 | 2990 | 4490 | 4980 | 8070 | 12900 |
| 2026-04-11 09:00 | 12.28 | 4370 | 16400 (1957) | 501 (1946) | 3710 | 645 | 755 | 1050 | 1270 | 2990 | 4490 | 4980 | 8070 | 12900 |
| 2026-04-11 08:00 | 12.32 | 4410 | 16400 (1957) | 501 (1946) | 3710 | 645 | 755 | 1050 | 1270 | 2990 | 4490 | 4980 | 8070 | 12900 |
| 2026-04-11 07:00 | 12.35 | 4430 | 16400 (1957) | 501 (1946) | 3710 | 645 | 755 | 1050 | 1270 | 2990 | 4490 | 4980 | 8070 | 12900 |
| 2026-04-11 05:45 | 12.41 | 4490 | 16400 (1957) | 501 (1946) | 3710 | 645 | 755 | 1050 | 1270 | 2990 | 4490 | 4980 | 8070 | 12900 |
| 2026-04-11 05:00 | 12.46 | 4540 | 16400 (1957) | 501 (1946) | 3710 | 645 | 755 | 1050 | 1270 | 2990 | 4490 | 4980 | 8070 | 12900 |
| 2026-04-11 04:00 | 12.51 | 4590 | 16400 (1957) | 501 (1946) | 3710 | 645 | 755 | 1050 | 1270 | 2990 | 4490 | 4980 | 8070 | 12900 |
| 2026-04-11 03:00 | 12.56 | 4640 | 16400 (1957) | 501 (1946) | 3710 | 645 | 755 | 1050 | 1270 | 2990 | 4490 | 4980 | 8070 | 12900 |
| 2026-04-11 02:00 | 12.62 | 4690 | 16400 (1957) | 501 (1946) | 3710 | 645 | 755 | 1050 | 1270 | 2990 | 4490 | 4980 | 8070 | 12900 |
| 2026-04-11 01:00 | 12.68 | 4750 | 16400 (1957) | 501 (1946) | 3710 | 645 | 755 | 1050 | 1270 | 2990 | 4490 | 4980 | 8070 | 12900 |
| 2026-04-11 00:00 | 12.74 | 4810 | 16400 (1957) | 501 (1946) | 3710 | 645 | 755 | 1050 | 1270 | 2990 | 4490 | 4980 | 8070 | 12900 |
| 2026-04-10 23:00 | 12.82 | 4890 | 16400 (1957) | 501 (1946) | 3710 | 645 | 755 | 1050 | 1270 | 2990 | 4490 | 4980 | 8070 | 12900 |
| 2026-04-10 22:00 | 12.89 | 4960 | 15700 (1957) | 520 (1935) | 3650 | 680 | 780 | 1010 | 1200 | 2970 | 4540 | 5000 | 7290 | 11000 |
| 2026-04-10 21:00 | 12.97 | 5040 | 15700 (1957) | 520 (1935) | 3650 | 680 | 780 | 1010 | 1200 | 2970 | 4540 | 5000 | 7290 | 11000 |
| 2026-04-10 20:00 | 13.05 | 5120 | 15700 (1957) | 520 (1935) | 3650 | 680 | 780 | 1010 | 1200 | 2970 | 4540 | 5000 | 7290 | 11000 |
| 2026-04-10 18:45 | 13.14 | 5210 | 15700 (1957) | 520 (1935) | 3650 | 680 | 780 | 1010 | 1200 | 2970 | 4540 | 5000 | 7290 | 11000 |
| 2026-04-10 18:00 | 13.21 | 5280 | 15700 (1957) | 520 (1935) | 3650 | 680 | 780 | 1010 | 1200 | 2970 | 4540 | 5000 | 7290 | 11000 |
| 2026-04-10 17:00 | 13.27 | 5330 | 15700 (1957) | 520 (1935) | 3650 | 680 | 780 | 1010 | 1200 | 2970 | 4540 | 5000 | 7290 | 11000 |
| 2026-04-10 16:00 | 13.34 | 5400 | 15700 (1957) | 520 (1935) | 3650 | 680 | 780 | 1010 | 1200 | 2970 | 4540 | 5000 | 7290 | 11000 |
| 2026-04-10 15:00 | 13.39 | 5450 | 15700 (1957) | 520 (1935) | 3650 | 680 | 780 | 1010 | 1200 | 2970 | 4540 | 5000 | 7290 | 11000 |
| 2026-04-10 14:00 | 13.47 | 5520 | 15700 (1957) | 520 (1935) | 3650 | 680 | 780 | 1010 | 1200 | 2970 | 4540 | 5000 | 7290 | 11000 |
| 2026-04-10 13:00 | 13.53 | 5580 | 15700 (1957) | 520 (1935) | 3650 | 680 | 780 | 1010 | 1200 | 2970 | 4540 | 5000 | 7290 | 11000 |
| 2026-04-10 12:00 | 13.59 | 5640 | 15700 (1957) | 520 (1935) | 3650 | 680 | 780 | 1010 | 1200 | 2970 | 4540 | 5000 | 7290 | 11000 |
| 2026-04-10 11:00 | 13.66 | 5700 | 15700 (1957) | 520 (1935) | 3650 | 680 | 780 | 1010 | 1200 | 2970 | 4540 | 5000 | 7290 | 11000 |
| 2026-04-10 10:00 | 13.72 | 5760 | 15700 (1957) | 520 (1935) | 3650 | 680 | 780 | 1010 | 1200 | 2970 | 4540 | 5000 | 7290 | 11000 |
| 2026-04-10 09:00 | 13.77 | 5810 | 15700 (1957) | 520 (1935) | 3650 | 680 | 780 | 1010 | 1200 | 2970 | 4540 | 5000 | 7290 | 11000 |
| 2026-04-10 08:00 | 13.83 | 5870 | 15700 (1957) | 520 (1935) | 3650 | 680 | 780 | 1010 | 1200 | 2970 | 4540 | 5000 | 7290 | 11000 |
| 2026-04-10 07:00 | 13.89 | 5930 | 15700 (1957) | 520 (1935) | 3650 | 680 | 780 | 1010 | 1200 | 2970 | 4540 | 5000 | 7290 | 11000 |
| 2026-04-10 06:00 | 13.95 | 5980 | 15700 (1957) | 520 (1935) | 3650 | 680 | 780 | 1010 | 1200 | 2970 | 4540 | 5000 | 7290 | 11000 |
| 2026-04-10 05:00 | 13.98 | 6010 | 15700 (1957) | 520 (1935) | 3650 | 680 | 780 | 1010 | 1200 | 2970 | 4540 | 5000 | 7290 | 11000 |
| 2026-04-10 04:00 | 14.05 | 6080 | 15700 (1957) | 520 (1935) | 3650 | 680 | 780 | 1010 | 1200 | 2970 | 4540 | 5000 | 7290 | 11000 |
| 2026-04-10 03:00 | 14.10 | 6130 | 15700 (1957) | 520 (1935) | 3650 | 680 | 780 | 1010 | 1200 | 2970 | 4540 | 5000 | 7290 | 11000 |
| 2026-04-10 02:00 | 14.17 | 6200 | 15700 (1957) | 520 (1935) | 3650 | 680 | 780 | 1010 | 1200 | 2970 | 4540 | 5000 | 7290 | 11000 |
| 2026-04-10 01:00 | 14.24 | 6270 | 15700 (1957) | 520 (1935) | 3650 | 680 | 780 | 1010 | 1200 | 2970 | 4540 | 5000 | 7290 | 11000 |
| 2026-04-10 00:00 | 14.30 | 6330 | 15700 (1957) | 520 (1935) | 3650 | 680 | 780 | 1010 | 1200 | 2970 | 4540 | 5000 | 7290 | 11000 |
| 2026-04-09 23:00 | 14.37 | 6400 | 15700 (1957) | 520 (1935) | 3650 | 680 | 780 | 1010 | 1200 | 2970 | 4540 | 5000 | 7290 | 11000 |
A total of 728 rows are displayed for years 1922 through 2024.